GFSFLT1_500_spd_000.txt.gz
Wind_Speed
16 17 19 20 21 22 24 26 29 28 26 23 24 26 26 27 29 31 34 37 38 36 32 29 23 20 17 14 12 10 10 9 9
16 18 19 22 25 27 28 31 32 31 28 26 26 28 29 30 32 33 35 37 38 37 33 29 24 20 14 11 10 11 9 9 8
17 19 20 24 26 28 30 32 31 28 27 27 28 29 31 32 33 34 34 37 38 38 35 29 25 20 17 12 10 8 10 10 9
17 17 20 23 22 25 25 25 25 25 25 26 28 29 31 33 34 35 35 37 38 37 37 32 26 22 19 17 15 12 11 12 12
17 18 22 20 23 25 26 26 26 27 26 27 29 30 31 32 34 35 36 37 38 37 37 32 28 24 23 21 20 18 16 16 16
19 20 21 21 25 28 28 28 27 27 27 27 28 28 30 31 33 35 37 38 38 38 37 35 30 28 27 26 25 24 22 21 20
21 22 21 22 26 28 29 29 29 30 29 29 29 30 32 34 36 38 38 39 39 37 37 37 34 31 32 30 30 29 27 26 26
23 23 22 24 25 26 27 28 28 28 29 30 30 31 32 33 35 36 36 37 38 38 37 36 35 32 34 34 34 33 31 31 32
25 25 25 26 27 27 29 29 31 32 30 30 31 32 33 35 36 38 40 41 41 40 39 37 35 34 34 36 38 37 37 36 37
28 28 29 30 30 32 32 33 34 35 35 35 35 36 37 38 38 39 40 41 42 42 42 42 41 39 37 36 39 42 42 42 42
30 31 32 32 34 35 36 38 39 39 40 40 40 41 41 42 42 42 43 43 44 44 43 42 42 42 41 41 40 40 42 44 45
31 33 35 35 36 37 39 41 42 43 44 44 44 44 44 44 45 45 45 46 46 47 46 44 42 42 44 44 45 45 40 38 40
33 35 37 38 38 38 40 43 44 45 45 47 48 48 48 47 47 46 47 48 48 49 48 48 47 44 43 45 47 49 47 45 42
36 37 39 41 40 40 44 45 46 46 47 48 49 50 50 50 48 48 49 49 51 51 51 49 50 49 47 46 46 47 50 48 49
40 41 43 44 44 45 48 48 49 49 50 52 51 51 51 51 52 52 52 52 53 54 53 51 53 53 52 50 47 46 47 45 48
42 44 47 48 47 48 50 52 51 52 53 54 54 54 55 54 55 56 54 54 56 55 55 56 56 54 57 52 52 49 43 46 45
46 47 48 49 52 51 53 56 56 54 55 56 58 58 57 58 58 57 56 55 57 56 60 61 61 58 59 56 52 53 42 45 44
45 47 49 50 51 52 53 54 57 58 57 59 60 63 63 62 57 56 55 55 56 62 62 61 61 63 64 62 57 52 44 44 42
43 46 49 52 54 55 57 58 59 62 63 63 63 63 63 64 64 61 60 61 62 61 59 62 62 62 64 61 56 52 45 46 43
50 53 56 58 60 59 60 62 64 65 67 66 67 66 63 61 65 66 63 67 63 58 58 58 59 61 64 60 53 50 49 47 45

GFSFLT1_500_spd_003.txt.gz
Wind_Speed
13 14 16 17 19 23 23 25 26 29 30 29 25 24 25 25 29 31 33 34 35 36 37 35 35 33 28 25 22 20 14 14 12
16 15 15 16 20 19 22 24 25 25 25 25 24 23 24 26 29 30 32 33 34 35 35 35 34 33 30 26 24 22 17 17 15
17 15 14 16 17 19 21 23 23 22 21 21 21 23 25 26 28 30 31 32 33 34 34 35 35 33 32 29 26 24 22 20 19
17 15 14 17 16 18 20 21 21 21 22 22 22 23 24 26 27 28 30 32 34 35 34 34 34 33 32 30 29 27 26 25 24
17 17 17 16 16 18 21 21 20 20 22 23 25 26 27 27 28 30 31 31 31 33 34 34 35 36 35 33 31 31 30 29 29
19 20 20 18 18 19 20 20 20 21 22 23 22 22 23 25 27 29 30 31 32 33 34 35 36 36 35 35 33 34 35 33 33
23 23 23 22 23 21 22 23 23 24 24 25 25 25 26 28 29 31 31 32 33 33 34 36 36 36 35 35 35 34 37 38 36
26 27 27 26 26 26 26 26 26 27 28 29 28 28 29 30 32 34 35 35 36 36 37 37 37 38 38 36 35 36 36 40 41
32 31 31 30 28 29 30 30 30 31 31 32 32 32 33 34 35 36 38 38 38 39 39 39 39 40 40 40 38 36 36 38 42
39 38 36 33 32 32 33 34 35 36 35 35 36 36 36 37 38 40 40 41 41 42 43 42 41 42 41 42 43 41 39 40 40
40 40 37 35 35 35 36 37 36 38 38 39 39 38 38 40 41 42 42 42 43 44 44 45 45 44 44 43 44 45 45 43 44
37 37 37 37 37 38 38 38 39 41 42 42 44 43 44 44 44 44 44 46 47 47 48 48 48 48 48 46 47 47 46 46 45
38 37 36 38 39 41 43 42 42 44 46 48 48 48 49 48 47 46 47 49 49 50 48 50 50 49 48 48 49 52 52 49 49
36 37 38 39 41 44 46 45 47 48 50 51 50 51 50 49 49 50 51 50 51 52 51 50 50 49 49 52 54 54 55 54 55
38 39 41 43 43 45 49 50 52 53 53 54 51 50 50 50 50 52 53 56 53 51 50 49 49 47 50 53 51 53 57 57 58
41 42 42 44 44 45 47 50 51 52 53 55 53 52 53 53 54 54 54 54 55 53 51 50 50 50 51 49 50 52 54 57 60
40 41 42 43 46 46 46 48 50 52 54 57 58 58 57 58 59 57 55 55 54 51 53 54 52 54 50 49 51 50 54 55 58
44 45 46 45 47 48 48 50 53 54 56 58 62 64 64 63 59 58 57 55 54 53 52 53 54 52 51 50 50 50 53 52 58
50 52 54 55 56 56 58 59 61 63 62 61 61 64 66 67 67 61 58 60 56 55 53 52 50 48 50 52 52 50 51 52 56
57 58 58 60 61 62 62 64 65 65 66 66 66 68 67 65 70 73 65 63 58 60 59 54 48 50 51 48 49 50 50 53 53

GFSFLT1_500_spd_006.txt.gz
Wind_Speed
13 13 14 13 12 13 15 19 21 22 22 22 22 21 21 22 22 24 26 27 29 28 29 29 29 29 29 29 29 29 29 30 27
15 16 16 13 13 12 16 18 21 21 20 19 19 19 18 19 20 22 23 24 25 26 27 28 26 26 27 27 28 28 28 29 30
16 17 15 14 13 13 15 17 19 19 18 18 19 20 19 19 19 21 24 25 25 25 26 27 28 28 28 28 28 28 29 30 30
16 16 16 15 15 15 15 15 15 17 17 17 17 18 19 19 20 21 23 24 25 26 26 27 27 28 29 28 29 29 30 31 32
16 16 17 18 18 17 19 16 16 17 18 19 19 20 20 21 23 23 24 25 26 27 28 30 31 32 31 31 30 29 30 31 33
20 20 20 22 22 21 22 22 21 21 22 22 22 22 22 23 24 27 28 29 31 32 32 33 34 34 34 34 33 33 32 32 33
25 24 24 25 26 27 26 26 27 27 26 27 27 27 27 28 28 30 32 33 34 35 36 37 37 37 37 37 37 36 36 36 35
30 29 28 30 30 32 31 31 32 32 31 32 32 31 30 30 30 31 33 35 36 38 39 40 40 39 40 41 41 38 38 37 38
33 35 37 39 36 35 36 37 36 35 35 35 35 35 34 34 34 35 36 38 39 40 41 42 43 43 43 43 43 42 41 39 41
39 41 43 43 39 39 40 41 41 40 38 38 38 38 38 38 39 40 41 41 41 41 41 42 43 44 45 45 45 44 42 41 42
45 46 45 42 41 42 41 42 43 43 43 43 42 43 44 44 45 45 44 44 43 43 43 44 44 45 46 47 46 45 43 42 44
40 40 40 41 42 43 42 43 45 47 47 47 48 48 48 47 47 47 47 46 45 45 45 47 47 47 47 47 46 44 42 45 47
38 38 40 41 42 42 43 44 46 48 51 52 53 53 53 52 51 48 49 49 49 49 48 49 51 50 49 47 47 46 46 46 46
36 37 38 39 41 42 44 46 48 49 51 54 56 57 57 55 52 52 53 52 53 53 53 52 52 52 51 50 48 48 49 47 47
37 38 40 43 45 46 47 49 51 52 53 56 57 58 58 57 55 55 56 56 57 58 57 55 54 54 52 50 50 50 50 47 45
36 36 37 39 40 42 42 44 46 47 51 54 55 57 57 57 58 59 59 59 60 58 56 58 56 54 54 55 52 52 49 46 46
41 43 44 45 47 49 50 51 52 52 54 57 61 62 60 59 62 63 63 62 62 58 56 57 59 56 54 52 53 49 45 46 47
49 50 52 54 54 55 55 56 58 59 59 61 65 67 67 66 61 63 64 64 63 60 61 61 58 56 51 54 52 46 46 47 45
51 52 54 55 57 58 60 61 62 63 64 66 66 67 70 73 74 64 64 66 64 63 61 60 58 54 54 55 54 52 48 48 45
54 55 58 60 62 64 67 68 70 71 72 72 73 74 73 71 72 74 64 61 60 60 62 62 60 56 54 54 56 55 54 43 44

GFSFLT1_500_spd_009.txt.gz
Wind_Speed
14 16 18 16 15 12 13 16 19 19 20 20 18 17 16 17 16 16 16 17 18 20 21 21 22 24 24 24 24 25 25 26 27
15 17 18 17 15 14 14 15 17 16 17 17 16 16 16 16 16 17 17 17 17 18 19 20 22 23 25 27 26 25 24 25 26
17 17 18 16 15 16 16 16 16 14 15 16 17 17 16 15 15 16 17 18 19 20 22 23 24 26 27 28 28 28 27 27 27
18 17 16 16 18 19 19 19 18 16 16 17 18 18 19 18 18 19 20 21 22 24 25 26 27 28 29 30 30 30 31 30 29
19 18 18 19 20 22 23 24 23 23 21 20 22 22 23 23 23 22 23 24 25 26 28 30 30 31 32 32 32 32 33 33 32
24 24 24 24 24 25 27 29 29 29 29 28 27 28 28 29 29 28 27 27 28 29 31 32 33 34 34 34 35 35 35 36 33
29 29 30 28 28 28 30 32 34 36 36 35 34 33 33 33 33 34 33 33 33 34 36 36 36 36 37 38 38 37 37 36 36
31 31 34 33 32 36 37 39 38 40 41 41 40 38 38 37 37 37 38 38 38 39 42 43 41 40 40 42 41 41 41 40 38
35 37 38 40 41 45 45 45 44 43 44 45 45 45 43 42 42 41 42 43 44 45 46 46 45 44 44 44 44 45 44 44 43
40 42 44 45 47 48 49 47 44 44 45 46 48 49 49 48 47 47 47 48 49 49 48 47 46 46 46 46 46 46 48 47 47
45 44 45 46 47 46 45 45 45 47 47 46 47 49 52 52 51 52 53 53 52 51 50 50 49 48 48 48 47 48 49 49 50
41 40 40 41 42 43 44 46 47 48 48 48 50 50 51 53 55 55 55 56 55 54 53 52 52 51 51 50 51 51 50 50 49
38 37 38 38 39 41 42 44 46 47 49 51 52 53 55 55 55 56 57 57 57 56 56 55 54 54 53 54 53 52 51 49 48
34 35 37 38 39 40 41 41 43 44 45 48 50 51 54 55 56 55 56 56 57 57 58 57 57 57 57 57 55 55 53 52 50
32 32 34 36 37 39 40 42 44 46 48 49 49 52 54 54 55 55 58 58 59 61 59 60 60 61 60 58 57 56 55 56 53
34 36 38 40 42 44 46 48 50 50 52 54 54 55 56 58 58 60 63 63 62 64 61 62 62 62 61 61 59 58 57 55 56
39 41 43 45 47 49 51 53 55 56 57 60 62 61 59 58 61 63 64 65 65 65 64 64 64 64 64 60 59 58 55 56 56
43 45 46 49 51 53 56 58 61 63 64 66 69 71 71 71 68 66 66 66 68 67 66 66 63 63 62 59 57 54 55 57 56
48 51 53 56 58 60 61 63 64 65 66 67 68 70 73 76 76 71 68 62 62 60 59 59 60 59 59 58 55 54 57 56 53
53 54 55 55 57 58 60 61 64 66 68 69 70 71 72 73 75 76 75 71 64 60 60 59 59 58 61 60 58 55 56 56 53

GFSFLT1_500_spd_012.txt.gz
Wind_Speed
14 18 18 19 18 19 17 16 15 17 17 17 17 17 17 16 15 13 13 13 13 14 14 15 16 18 18 19 21 22 23 23 24
16 18 19 20 20 19 18 18 19 18 17 15 15 16 16 15 14 14 13 14 15 16 16 18 19 20 22 23 24 25 25 26 26
17 19 20 20 19 17 19 21 21 21 20 20 17 17 17 17 16 16 17 17 18 19 20 22 23 25 26 26 27 28 27 27 29
19 20 20 20 19 19 20 22 23 25 26 26 25 22 21 21 21 21 22 22 22 23 23 24 25 26 26 28 29 30 30 29 31
21 22 23 24 24 23 24 26 26 27 29 32 32 31 29 29 28 28 28 28 28 28 28 28 29 31 32 32 32 31 31 32 33
25 26 29 31 31 30 28 30 31 30 32 35 38 38 38 37 36 36 34 34 34 34 34 34 35 36 38 38 37 36 36 36 36
29 31 32 34 34 34 34 34 36 39 40 41 41 42 42 43 43 42 41 39 39 40 40 40 40 42 43 43 42 41 40 39 39
32 33 35 36 37 37 39 42 43 45 45 46 47 45 45 46 47 47 47 46 46 45 45 45 46 46 47 47 46 46 44 43 42
35 36 38 39 42 44 45 47 48 50 51 50 47 45 45 45 46 49 51 51 52 52 51 50 51 51 51 51 50 48 46 47 46
38 41 43 46 47 47 47 46 45 45 44 45 45 46 46 46 46 47 49 51 53 54 55 54 54 54 54 53 52 50 49 49 49
46 46 44 43 42 40 40 40 41 42 43 44 45 46 47 48 49 49 49 51 52 53 55 56 56 56 55 54 53 52 51 51 50
45 43 41 41 41 40 39 40 41 42 44 45 46 47 48 49 50 51 51 52 53 54 55 55 56 55 55 54 53 53 53 53 53
35 35 36 37 38 39 39 40 39 39 41 42 43 44 46 47 48 48 50 51 52 53 55 56 55 55 56 56 57 55 55 55 55
32 32 32 33 33 35 37 39 41 42 44 46 47 48 50 51 53 53 55 56 56 57 57 59 60 59 60 60 60 58 58 57 57
30 31 33 36 37 39 41 43 45 46 48 50 49 50 51 52 54 56 59 60 62 63 63 63 63 64 64 63 62 61 60 59 58
35 36 38 40 41 43 46 48 49 52 55 57 57 58 58 59 59 61 61 63 65 66 66 66 67 66 66 66 65 63 59 57 58
39 41 43 45 47 49 52 55 56 57 58 60 63 63 60 58 59 60 61 62 63 62 62 62 63 65 66 66 65 65 62 59 58
43 46 48 50 52 52 54 56 59 59 60 62 64 66 67 67 65 65 65 65 65 66 66 65 65 64 63 63 64 62 61 61 60
47 47 47 49 52 54 56 58 60 61 61 62 65 69 73 76 76 74 74 73 70 67 65 65 64 66 64 63 61 61 62 64 63
45 47 51 55 57 59 60 61 63 67 69 72 75 78 80 82 85 82 80 81 80 77 75 69 65 64 63 64 63 64 64 70 66

GFSFLT1_500_spd_015.txt.gz
Wind_Speed
16 18 17 17 20 21 19 20 20 19 18 18 18 19 18 16 15 14 13 13 13 12 12 13 15 16 17 19 20 21 23 25 26
19 19 19 19 20 21 20 20 20 20 21 21 21 22 22 17 15 15 16 16 17 17 17 17 18 19 20 20 21 23 25 26 27
21 21 20 19 20 21 19 19 21 22 22 24 26 26 27 26 23 20 20 21 22 22 22 23 23 22 23 24 24 26 27 28 28
24 22 21 21 22 22 22 23 23 24 24 26 27 29 31 33 33 32 29 28 28 28 28 28 28 27 28 29 30 31 32 33 31
24 22 23 24 25 27 28 28 29 30 29 29 30 32 33 35 38 39 38 37 37 36 35 35 35 34 35 35 35 36 37 36 35
24 25 26 28 29 31 33 33 33 32 33 34 37 39 39 39 42 43 43 43 42 42 41 41 40 40 40 41 41 41 42 41 39
28 28 29 31 33 34 35 36 36 38 38 40 45 45 45 45 45 44 44 44 45 45 46 46 46 45 46 46 46 46 46 45 43
29 30 32 34 36 37 38 40 42 44 46 47 50 49 48 46 44 43 43 44 44 43 45 47 49 49 49 49 50 49 49 48 47
31 32 34 36 39 41 44 45 46 45 44 44 44 44 43 43 42 43 44 44 44 45 45 46 48 49 50 51 51 50 50 50 49
33 35 39 43 45 44 43 42 41 40 41 41 42 42 43 43 44 44 46 47 47 48 49 50 50 50 51 51 52 52 51 51 50
37 39 41 43 42 40 40 40 39 39 40 41 42 42 42 42 42 43 43 46 48 49 50 51 52 52 53 53 53 53 52 51 51
37 37 36 35 34 33 34 35 35 35 36 37 40 41 41 42 43 44 45 47 49 51 51 52 52 54 55 55 54 52 52 52 53
34 32 32 32 32 32 33 35 36 37 38 40 43 44 47 48 49 50 51 52 53 54 55 57 57 57 57 58 58 58 57 57 57
31 30 31 32 34 36 37 39 41 42 44 46 47 49 50 51 53 54 56 57 57 58 58 59 60 61 61 62 62 62 61 61 60
32 32 34 36 38 40 42 43 46 47 49 50 51 52 51 51 51 53 54 55 55 57 59 59 60 61 62 63 64 63 63 63 63
36 37 39 41 42 44 46 48 49 50 53 54 55 54 54 55 56 55 56 56 57 59 61 62 63 63 64 64 65 65 65 64 62
40 41 43 44 46 47 47 48 50 53 57 60 62 61 59 59 59 60 62 63 64 65 66 68 69 69 68 68 67 68 67 67 66
43 43 43 43 44 46 50 54 57 59 61 64 68 69 69 69 68 68 68 69 69 70 70 71 71 73 73 72 73 72 71 70 70
43 42 44 47 50 53 57 61 64 67 69 69 70 73 77 80 79 77 77 78 78 78 78 78 77 75 76 76 75 75 74 73 68
42 46 50 53 58 63 67 69 71 73 75 77 79 79 79 82 84 83 83 85 87 88 90 91 89 85 78 75 75 76 76 75 74

GFSFLT1_500_spd_018.txt.gz
Wind_Speed
18 19 19 21 22 22 20 19 21 22 22 22 22 22 21 22 21 21 19 17 16 16 17 17 18 18 18 18 19 19 20 21 23
21 22 22 22 21 20 20 18 19 20 21 22 23 24 25 26 26 24 25 24 23 22 22 23 23 24 24 23 23 24 24 26 27
25 26 24 24 21 20 20 19 21 21 22 23 24 26 27 29 29 28 29 30 31 31 30 29 29 29 29 29 29 29 30 31 31
23 24 25 25 24 22 23 24 25 27 27 29 29 29 30 31 32 32 34 35 35 36 37 37 37 36 36 36 36 36 36 36 36
21 22 23 24 26 26 27 29 31 33 33 34 34 34 35 36 37 39 41 41 40 41 41 41 42 41 40 40 40 40 41 42 42
25 25 25 26 27 29 31 33 36 37 37 37 37 37 39 41 44 45 46 46 45 43 43 43 43 43 44 45 44 44 44 44 45
28 28 28 29 29 32 34 36 38 39 42 42 44 45 45 47 49 49 49 47 45 43 43 43 44 44 44 46 47 48 48 47 47
29 29 30 31 33 35 37 39 40 44 45 47 48 47 47 46 46 46 45 44 44 44 45 45 45 46 46 46 47 48 49 49 50
26 28 30 32 34 37 42 44 46 46 44 44 44 42 41 42 43 44 45 46 46 47 48 48 49 50 50 50 51 51 52 51 51
28 31 35 36 39 41 42 41 40 40 40 40 39 39 39 41 42 42 42 43 44 44 45 46 46 47 49 49 50 52 53 54 53
33 36 37 39 37 38 37 36 35 35 35 36 37 37 38 39 41 42 43 45 47 49 49 50 50 51 52 53 53 53 54 53 53
36 37 37 36 35 35 34 34 33 34 35 36 38 40 42 44 46 48 48 49 51 53 54 55 55 55 56 56 57 58 58 58 57
37 36 35 35 35 35 34 35 36 38 40 41 43 44 46 48 50 51 53 53 54 54 54 57 58 57 57 57 58 58 60 60 61
36 35 36 36 36 37 39 40 41 42 44 45 46 46 47 48 50 52 54 55 56 57 58 57 59 61 61 60 59 59 59 60 61
36 36 37 38 39 41 42 43 45 46 46 46 47 48 50 52 54 56 57 59 61 62 63 63 64 64 65 67 68 67 67 66 65
38 39 40 41 41 43 43 43 43 45 48 50 52 55 57 58 61 62 64 65 66 67 69 70 71 72 73 72 73 73 73 72 72
40 41 42 43 43 43 43 45 47 51 55 59 62 63 62 64 67 68 68 69 69 70 71 73 74 76 76 77 77 78 77 77 76
41 42 43 42 42 44 47 49 51 54 58 63 68 70 70 71 70 70 72 72 74 74 76 77 79 81 83 83 83 83 84 84 83
42 42 41 43 46 48 50 53 57 61 65 68 69 72 76 79 78 78 79 79 80 81 82 84 86 89 91 90 89 88 86 87 88
41 42 45 48 50 53 56 61 64 70 72 74 75 77 78 80 84 85 87 88 90 90 92 93 95 96 97 96 96 94 91 89 88

GFSFLT1_500_spd_021.txt.gz
Wind_Speed
19 19 19 19 19 20 22 23 22 21 21 20 20 23 22 21 23 24 24 23 22 22 23 22 21 20 21 22 23 23 23 22 23
22 22 22 22 22 23 22 21 21 21 20 20 20 23 24 23 24 26 27 27 27 27 28 29 28 28 27 27 28 28 28 28 28
24 24 25 25 25 25 23 23 22 22 23 23 24 26 27 28 29 31 31 30 29 31 33 33 33 35 35 35 35 34 34 34 34
20 20 22 22 23 24 24 24 26 26 28 28 29 31 32 33 34 34 34 35 35 36 38 39 39 39 39 40 39 39 39 38 38
24 24 24 24 24 25 25 27 29 30 31 31 33 34 35 35 36 37 39 40 42 42 43 44 45 44 42 42 43 43 44 44 43
27 27 26 27 27 27 29 30 32 33 34 37 37 39 40 41 42 42 45 47 47 50 49 47 47 45 44 44 45 45 46 47 48
26 26 27 28 29 30 32 34 36 37 40 42 43 44 44 47 47 47 48 50 50 49 47 45 45 46 46 47 48 48 48 48 48
23 24 27 29 31 32 34 36 38 41 43 46 48 47 47 45 43 43 43 42 43 45 45 45 46 46 47 48 49 50 50 51 51
23 25 27 29 32 35 37 40 42 45 44 43 43 42 40 38 39 38 38 39 41 42 42 43 43 44 45 46 47 48 49 49 50
27 30 32 35 37 38 41 41 41 40 39 38 36 36 35 35 36 36 37 38 41 43 44 45 47 48 49 50 51 51 52 52 53
31 33 36 37 39 40 39 38 37 36 35 34 35 36 36 37 39 40 41 43 44 46 49 50 51 52 53 54 54 54 55 55 55
35 37 39 39 38 37 37 36 35 36 36 37 38 39 40 41 43 44 44 45 45 46 49 52 54 55 55 56 56 57 57 57 56
38 40 39 37 37 36 36 36 36 38 39 39 40 40 40 40 41 43 46 47 50 51 52 55 57 60 60 60 60 60 60 59 59
40 39 36 36 36 37 37 38 39 39 40 39 38 38 40 43 45 49 52 54 57 58 61 62 62 63 65 67 67 67 66 67 67
37 35 35 36 37 38 38 39 40 40 40 40 41 41 43 46 49 53 55 59 61 63 65 66 67 68 68 70 72 74 73 72 71
36 36 36 37 37 38 40 39 40 40 43 45 45 47 50 53 56 58 61 62 64 65 68 70 72 73 74 74 73 75 77 78 78
36 37 37 39 40 41 41 41 43 46 49 51 53 55 54 58 62 65 68 68 70 70 71 73 76 78 80 80 81 81 84 84 84
39 40 41 41 42 43 45 48 50 51 52 56 61 63 65 68 70 72 73 74 75 76 77 78 80 82 83 86 87 90 90 91 91
41 41 42 43 45 47 49 50 52 55 59 63 67 71 76 81 81 82 80 79 80 80 81 83 85 87 89 91 92 93 93 94 94
43 43 44 45 46 49 52 56 59 63 67 71 73 76 77 78 81 84 86 86 86 86 87 90 91 93 95 97 98 99 100 100 99

GFSFLT1_500_spd_027.txt.gz
Wind_Speed
15 18 19 19 19 18 19 19 20 21 20 22 22 22 23 22 22 23 24 25 23 23 25 24 24 22 21 21 22 24 25 26 25
14 17 19 20 21 22 23 23 23 24 23 23 22 23 23 23 23 24 24 27 27 26 30 31 29 29 28 28 28 29 31 31 32
16 17 17 18 19 20 23 23 25 25 26 26 26 26 27 27 28 28 30 31 32 32 34 34 36 34 34 35 35 35 36 38 38
20 21 21 22 22 22 22 22 23 25 26 27 29 30 29 30 31 32 33 34 35 34 35 36 38 39 38 40 41 41 41 42 42
20 21 22 24 25 26 26 26 27 28 29 30 32 32 32 33 34 36 38 39 40 40 40 40 42 43 44 46 46 45 45 43 42
19 21 21 22 24 26 27 27 28 29 31 32 34 35 35 36 38 40 43 45 47 47 46 45 43 41 41 42 44 43 41 41 40
20 20 19 20 21 23 24 25 27 29 31 33 35 36 37 39 41 43 44 41 41 39 38 38 38 35 36 36 36 36 36 37 37
21 21 21 21 22 24 25 27 29 31 34 36 37 38 39 40 40 39 37 36 34 33 31 31 30 31 33 33 34 35 36 36 37
23 23 23 25 26 27 29 31 33 35 37 37 39 39 39 37 36 34 33 32 32 31 32 32 31 32 33 35 36 36 38 39 40
30 27 26 28 29 30 33 34 36 36 37 38 37 36 36 34 33 34 33 34 34 34 34 35 35 35 36 37 38 40 41 42 43
34 33 32 32 33 34 36 38 39 38 35 34 34 33 33 33 34 36 36 36 36 36 37 37 38 40 40 43 43 44 46 48 49
38 38 36 36 37 38 40 42 39 35 32 31 31 32 33 36 37 38 38 38 38 39 40 41 43 45 45 47 48 49 51 51 53
40 40 39 38 38 41 43 40 38 35 33 33 35 35 36 38 39 39 41 42 43 44 46 48 49 50 51 52 54 55 57 58 59
32 34 35 37 39 42 41 40 38 38 37 38 38 38 38 39 40 43 45 47 48 50 52 54 55 56 58 61 63 64 66 66 67
31 34 37 39 40 40 40 38 39 39 39 39 39 40 41 43 45 46 48 50 52 55 57 61 64 66 68 69 71 72 70 71 72
36 39 41 41 41 40 39 39 40 42 42 42 42 43 45 47 49 52 55 57 62 64 66 67 70 71 72 73 74 75 77 76 76
40 41 42 43 42 41 42 42 41 42 44 45 46 46 48 52 56 59 62 65 67 68 70 71 72 74 75 76 77 78 79 81 81
43 43 42 41 40 42 42 43 43 45 48 52 56 58 59 60 60 62 64 67 68 70 71 73 75 77 79 80 81 83 84 85 85
43 42 40 41 41 41 42 45 48 51 54 56 62 67 70 72 70 67 68 70 71 73 74 76 78 81 83 85 86 88 89 90 91
42 41 41 41 42 43 46 50 54 58 60 63 65 67 69 72 77 78 76 75 75 76 77 79 82 84 87 89 91 92 94 95 96

GFSFLT1_500_spd_030.txt.gz
Wind_Speed
13 16 19 21 22 22 22 22 23 23 24 24 25 26 27 29 27 27 26 25 27 29 29 27 29 27 26 26 25 24 24 24 25
16 15 17 20 23 24 24 25 27 28 28 29 29 28 28 28 27 27 26 27 28 28 31 32 33 33 32 32 31 30 30 29 30
20 19 19 20 20 21 23 24 26 27 29 29 30 30 30 31 31 31 31 31 32 34 35 35 37 37 36 37 36 36 36 36 36
21 22 23 24 25 25 25 26 26 27 27 27 28 29 30 32 33 34 34 34 35 37 37 38 39 40 40 40 41 42 41 42 42
20 21 22 24 25 26 27 28 29 30 30 31 32 33 33 34 35 36 37 38 39 40 41 42 46 46 45 44 45 47 49 48 47
18 19 20 21 22 23 24 24 26 28 30 31 32 34 34 35 37 38 39 40 41 42 45 46 45 45 45 46 45 44 44 42 44
19 18 18 20 20 21 22 23 24 26 28 30 32 33 35 37 38 39 41 42 43 43 42 40 38 35 35 35 36 37 37 35 38
21 21 22 24 25 25 25 26 27 28 31 34 36 37 37 38 39 40 40 40 41 40 37 35 33 33 32 33 33 33 34 34 35
27 26 26 26 27 28 29 30 32 34 35 38 40 40 40 39 39 38 37 36 36 36 36 36 37 36 36 36 37 37 39 38 38
31 32 33 33 31 31 32 33 35 37 39 41 40 40 39 38 37 36 36 36 37 38 39 40 40 41 41 40 40 41 42 41 42
33 37 37 39 37 36 36 37 38 39 41 40 39 38 38 39 38 38 38 39 40 41 42 43 43 43 44 45 45 46 47 47 47
34 34 36 39 38 39 40 40 40 41 41 39 37 38 38 39 40 41 43 43 43 43 44 45 46 47 49 50 50 51 52 53 54
31 33 33 32 38 41 41 41 41 41 41 39 38 38 39 40 42 43 44 45 45 47 48 50 51 53 54 55 56 57 58 59 60
28 29 28 29 31 35 39 40 41 41 41 40 40 41 42 43 43 44 45 47 48 50 51 53 55 57 58 60 61 63 66 68 69
28 30 32 35 38 40 42 44 45 43 41 41 41 42 43 44 45 46 48 50 52 55 57 60 62 64 66 67 69 70 72 73 74
33 37 38 39 41 42 45 46 45 45 42 40 42 43 46 46 48 51 54 56 59 62 65 66 67 69 70 71 72 73 74 74 75
37 39 41 42 43 45 45 42 42 43 44 45 45 44 47 51 54 57 60 63 65 67 69 70 71 72 73 73 74 75 76 77 78
40 41 43 45 44 41 40 41 43 44 47 49 51 54 55 57 57 60 63 65 66 68 68 69 71 73 74 75 76 77 78 80 81
43 44 44 42 41 41 43 44 46 48 50 54 59 63 65 66 63 63 65 66 67 69 69 70 71 73 75 77 79 81 83 85 86
45 44 42 41 42 43 45 47 50 53 57 60 62 64 68 72 76 75 73 69 67 67 68 70 73 76 79 82 85 88 91 94 95

GFSFLT1_500_spd_033.txt.gz
Wind_Speed
16 16 18 19 21 23 24 24 24 24 24 25 27 27 29 30 31 31 30 30 29 28 29 30 30 29 31 31 31 31 29 27 27
17 19 19 18 19 22 24 26 27 27 28 29 31 31 32 32 32 32 31 30 30 29 30 31 31 32 34 35 35 37 35 34 33
18 20 22 22 22 23 23 23 24 25 27 28 30 30 31 32 32 33 33 33 34 34 34 35 37 37 38 39 39 41 40 39 38
18 20 21 22 23 25 27 28 29 29 29 30 31 31 33 33 33 34 35 35 35 37 38 38 39 40 41 42 43 44 44 44 44
17 19 21 22 23 25 27 29 30 30 31 32 34 34 35 36 36 37 38 38 38 39 39 41 41 42 44 46 48 49 49 48 49
16 17 18 20 21 23 23 23 25 25 25 27 28 30 32 34 35 37 38 39 39 40 41 43 43 43 43 43 43 44 46 48 50
18 19 19 20 20 21 22 23 24 25 27 29 30 32 34 37 38 40 41 42 42 43 43 43 42 40 37 38 38 38 39 39 40
23 25 26 26 27 27 27 28 28 29 30 33 35 37 38 39 40 41 42 43 43 44 43 42 40 38 37 37 36 37 38 37 38
27 29 31 33 35 34 33 32 31 32 33 36 38 39 41 42 41 42 41 42 42 41 41 41 41 41 40 40 40 41 42 42 42
28 31 33 34 34 36 36 35 36 36 37 40 40 42 43 42 41 41 41 41 40 40 40 41 43 44 45 45 45 45 45 45 45
28 30 33 37 38 36 38 37 36 36 38 41 42 44 43 41 40 41 41 41 41 41 42 43 44 45 46 47 47 47 48 48 48
28 32 34 35 35 35 35 34 37 39 40 41 43 43 42 41 41 41 42 43 43 44 45 45 46 46 47 48 49 51 52 54 55
31 32 31 31 30 28 28 31 33 37 41 42 43 44 43 43 44 44 44 44 45 46 47 48 49 50 51 52 54 55 57 58 59
32 32 31 30 31 33 35 38 39 42 44 45 46 45 44 44 44 45 46 46 47 48 49 51 52 54 56 58 60 61 63 64 66
26 27 30 33 36 37 38 40 43 45 46 47 45 43 42 43 44 46 48 50 51 53 55 57 59 61 63 64 66 67 68 69 70
29 31 34 37 39 41 42 44 46 46 43 39 39 42 43 45 46 49 52 55 58 60 61 62 63 65 67 68 69 70 70 71 72
30 33 37 39 42 44 45 46 45 42 40 41 41 42 45 48 51 54 57 60 61 64 66 68 70 71 71 72 73 73 73 74 74
32 35 38 41 45 48 47 44 41 43 44 45 47 48 48 50 53 57 60 63 65 68 69 69 70 71 71 71 71 72 73 75 76
36 38 41 44 47 48 44 43 44 45 47 50 53 55 59 60 58 58 61 64 66 66 66 66 67 69 71 74 76 78 80 81 83
40 41 44 46 47 46 45 46 48 49 51 54 57 61 63 66 68 64 65 64 62 62 64 66 69 73 77 80 82 84 87 90 93

GFSFLT1_500_spd_036.txt.gz
Wind_Speed
14 15 16 15 16 18 19 22 24 25 25 24 26 27 28 28 29 30 31 31 30 31 30 29 28 28 30 31 31 31 31 30 29
15 15 18 18 19 19 19 20 21 23 26 27 29 30 31 32 33 33 33 32 31 31 32 32 32 31 31 32 32 33 34 34 34
16 16 17 18 20 23 24 26 25 25 26 27 28 29 29 30 31 31 31 32 32 33 33 34 35 36 36 36 37 38 38 39 40
15 15 16 17 20 21 23 25 27 27 29 30 31 32 34 34 34 34 35 36 36 37 37 37 37 38 39 40 40 41 43 43 45
13 15 16 18 19 21 22 24 24 24 27 28 28 29 29 30 30 31 32 33 35 36 37 39 40 40 40 42 44 45 46 47 50
15 16 16 16 17 17 18 20 21 22 24 24 26 27 28 29 31 33 35 36 38 39 40 41 42 43 44 45 45 45 45 45 44
18 19 20 22 22 23 24 24 25 25 26 27 29 31 31 33 34 34 35 37 38 39 42 44 44 45 45 44 43 41 43 40 38
22 24 25 27 28 29 31 34 34 32 32 32 33 34 34 36 36 36 38 39 39 38 38 39 41 41 41 41 40 39 39 38 39
24 26 27 27 29 30 33 34 35 35 38 38 39 39 39 40 41 41 40 39 39 39 38 39 40 40 40 40 39 39 39 40 41
25 26 27 28 31 34 33 34 33 36 37 38 40 40 42 42 42 42 42 41 40 39 39 39 40 41 42 42 42 42 42 42 42
25 25 27 29 30 31 31 32 30 30 32 34 37 39 40 41 42 43 43 42 41 41 41 41 41 42 43 43 44 44 45 45 46
25 27 27 31 31 30 29 30 29 30 32 35 38 39 41 42 44 44 43 43 42 42 42 42 43 44 44 45 46 47 48 49 49
26 28 31 33 31 29 30 30 31 34 37 39 42 44 46 47 47 44 42 41 41 42 43 45 45 46 47 48 50 52 53 54 55
29 32 34 31 26 28 32 34 36 37 40 43 46 47 48 47 44 41 41 42 43 45 47 48 49 51 53 55 56 57 58 59 60
32 32 33 30 30 33 36 37 38 39 42 44 46 43 40 39 40 42 44 45 47 49 51 53 55 57 58 58 59 60 62 64 65
32 32 31 31 33 36 37 38 41 42 43 42 41 40 40 41 43 45 46 49 52 56 58 59 59 61 62 63 64 65 66 67 67
32 31 32 33 35 37 39 42 44 46 46 43 41 41 44 46 47 50 51 55 58 60 62 63 65 66 67 68 69 69 69 70 70
32 34 36 36 39 41 43 44 46 48 46 43 45 45 45 46 47 51 56 59 60 62 65 66 67 67 68 68 68 69 70 71 73
37 38 39 40 42 44 45 47 47 46 46 48 49 50 52 54 53 53 55 58 61 62 64 64 65 66 67 69 71 73 75 77 80
39 41 42 43 43 45 48 48 46 47 48 49 52 55 58 62 63 60 59 59 62 61 61 62 65 68 71 74 77 80 83 85 88

GFSFLT1_500_spd_039.txt.gz
Wind_Speed
13 14 16 15 15 15 14 15 17 19 21 23 25 26 26 27 28 29 29 30 31 32 31 30 29 29 28 27 27 28 29 30 30
14 15 15 16 18 20 18 18 18 19 20 20 22 23 25 25 27 27 27 27 28 29 29 30 31 30 30 31 32 31 32 31 32
15 15 15 16 17 19 19 20 21 23 24 26 26 27 28 29 29 30 31 30 31 32 32 32 33 33 33 33 34 35 35 36 37
14 14 14 15 17 17 18 18 20 21 24 25 26 27 27 28 27 27 28 29 30 31 32 33 33 34 35 36 36 37 38 39 41
15 15 14 14 16 16 16 18 19 20 21 21 22 23 25 24 23 24 26 29 31 33 35 36 37 37 37 38 39 41 41 41 43
17 17 17 16 16 16 17 17 17 19 20 21 21 23 24 27 26 27 28 30 32 33 34 35 36 37 39 40 41 42 42 43 42
21 20 20 20 21 23 25 25 26 28 30 29 28 29 28 30 30 30 31 32 33 34 35 36 36 37 37 38 37 39 40 40 40
23 22 21 23 24 26 26 27 28 31 32 33 32 31 31 33 33 33 35 36 37 38 38 37 37 36 36 35 35 36 36 35 35
24 24 22 23 25 26 26 29 31 30 29 31 32 32 31 33 34 36 37 39 39 40 41 40 39 39 37 36 36 36 36 35 37
25 24 23 25 25 27 28 28 28 27 25 24 24 25 28 31 32 34 36 38 39 39 40 40 40 40 41 40 40 40 40 39 39
26 24 25 26 27 27 29 30 28 26 26 27 28 29 32 34 35 37 39 41 43 43 42 42 40 40 40 41 42 43 44 43 43
22 24 26 28 27 29 32 34 29 27 30 32 33 34 37 39 41 43 45 45 44 43 41 40 39 40 40 41 42 44 45 46 46
23 25 27 28 29 32 34 31 28 29 34 37 36 37 40 42 44 45 45 41 39 39 39 40 41 43 44 45 47 48 50 50 51
26 26 28 30 31 34 32 31 30 33 37 37 38 40 41 42 42 39 38 40 42 43 44 45 46 47 49 51 53 54 56 56 57
27 29 30 32 34 33 32 32 33 36 37 39 41 42 43 43 41 41 42 43 45 47 48 50 52 54 56 58 59 59 60 61 61
29 31 32 33 33 32 33 34 37 37 39 41 43 43 45 44 44 45 46 49 50 52 54 56 59 60 61 61 62 63 63 63 64
31 32 34 34 34 35 36 39 39 40 41 42 43 44 45 45 46 48 50 51 53 56 59 61 62 63 63 64 63 64 65 66 68
33 34 36 36 37 38 41 42 43 43 43 45 47 45 44 46 46 49 53 55 58 61 63 63 64 65 65 66 67 68 69 70 71
36 37 37 38 40 43 44 44 44 45 48 48 48 49 51 50 49 48 51 55 59 61 63 65 67 67 67 69 71 72 72 73 75
37 37 39 41 44 45 45 45 46 48 49 50 51 52 54 56 57 56 56 56 57 60 63 64 65 66 68 70 72 73 76 79 83

GFSFLT1_500_spd_042.txt.gz
Wind_Speed
14 15 16 18 18 18 18 17 19 19 19 20 22 23 23 24 25 25 26 27 28 26 27 26 26 27 28 28 29 29 28 27 28
15 16 17 18 18 19 20 21 22 21 21 22 22 22 22 23 24 24 25 26 27 28 28 28 28 28 28 28 29 30 31 32 31
15 16 17 17 18 18 19 20 21 21 22 23 23 23 24 25 25 26 26 26 26 26 27 27 27 28 29 29 31 32 32 34 34
16 16 16 16 16 16 18 18 19 19 21 22 23 23 23 23 23 23 24 23 24 25 26 28 30 31 32 33 34 34 35 35 36
17 16 16 16 16 17 17 17 17 17 17 18 19 20 21 21 22 23 24 25 27 28 29 29 30 31 32 34 35 36 38 39 39
21 19 19 18 18 18 18 19 20 21 23 25 26 26 26 25 25 25 26 27 29 29 30 31 31 32 33 34 34 36 37 37 38
24 23 22 21 21 22 22 23 25 27 28 30 31 31 30 30 31 30 30 31 32 33 33 35 35 36 36 36 36 36 35 35 35
27 25 23 24 24 23 23 24 26 27 29 30 27 27 29 31 31 31 33 34 34 35 37 38 38 39 38 38 37 38 37 36 36
28 27 25 25 25 25 25 25 27 28 28 28 25 23 22 24 26 28 31 33 33 35 36 37 37 38 38 38 39 39 38 37 38
27 27 27 27 27 26 27 27 29 28 30 28 25 25 26 28 29 29 32 35 36 38 40 42 42 43 42 42 42 42 41 41 39
27 27 28 28 27 27 29 29 30 31 33 30 28 28 30 32 33 34 36 39 41 42 44 44 43 42 41 41 41 41 41 43 42
27 27 28 28 28 28 30 31 31 33 32 30 30 31 34 35 35 38 39 41 42 42 41 39 39 38 39 40 41 42 44 45 45
28 28 28 28 29 30 30 32 33 34 30 31 33 35 36 36 39 40 41 43 41 40 40 41 42 43 44 45 47 47 49 50 50
29 28 29 29 30 31 31 33 35 35 33 34 35 37 38 40 42 42 43 44 43 42 43 44 45 47 49 50 52 54 55 58 59
31 30 30 30 31 32 33 35 35 35 36 36 38 40 42 43 43 45 46 45 45 46 47 48 50 52 54 56 59 61 62 63 64
33 32 31 32 33 34 35 36 37 36 37 39 41 43 44 44 47 48 47 48 48 50 52 53 55 57 59 60 62 64 65 66 67
35 34 33 34 35 37 37 38 39 40 40 42 45 46 45 48 49 50 50 51 53 54 56 58 59 60 62 64 65 65 65 66 67
37 37 36 36 38 39 39 41 42 43 44 47 47 45 47 49 49 50 52 55 56 58 60 62 64 65 66 66 66 67 68 69 71
40 40 40 40 41 41 42 43 45 45 48 48 47 49 51 51 51 49 52 55 57 60 62 64 65 66 68 69 70 70 72 73 75
39 41 41 42 42 43 44 44 46 50 50 48 50 51 53 55 57 56 54 56 57 57 60 62 65 66 67 68 69 71 74 76 78

GFSFLT1_500_spd_045.txt.gz
Wind_Speed
17 18 18 18 19 19 19 18 18 19 21 21 20 19 19 20 22 24 24 25 26 26 25 24 24 25 24 24 24 24 24 25 27
18 18 18 18 19 20 20 21 22 23 23 23 23 23 24 23 24 25 25 26 28 27 27 27 26 26 27 27 28 27 27 28 28
19 18 18 18 18 19 19 20 21 21 21 22 23 24 24 24 25 25 26 27 27 25 23 23 24 25 25 26 27 28 28 29 30
20 19 18 18 17 17 17 19 20 20 21 21 22 23 24 24 25 25 24 24 24 23 22 24 26 27 28 28 28 29 30 32 32
22 21 20 19 18 17 18 20 20 20 20 21 21 21 21 23 24 24 25 25 25 25 25 26 26 27 28 27 29 30 31 32 33
24 23 22 20 20 20 20 20 21 22 23 25 26 28 29 31 30 29 30 30 29 28 29 29 30 31 32 31 34 35 35 34 34
27 26 25 24 23 23 23 24 25 26 26 27 27 29 32 32 32 31 34 33 32 31 31 32 34 34 37 37 37 36 36 35 36
30 29 27 26 26 27 28 27 27 27 27 27 28 29 29 27 25 27 29 32 32 32 32 34 35 34 35 36 35 36 36 36 37
30 30 29 29 29 30 30 29 28 29 29 29 29 29 28 25 24 23 26 27 27 27 29 32 35 36 38 40 41 41 40 40 39
31 32 30 30 31 32 31 31 30 30 30 31 31 32 32 29 28 26 30 30 31 33 34 35 37 38 38 39 39 39 39 40 40
32 31 31 31 33 33 33 32 31 31 32 32 34 35 32 31 31 32 31 32 35 36 39 38 39 38 38 38 38 38 38 38 38
32 32 31 32 33 33 33 33 33 32 33 33 35 33 30 32 33 35 35 36 39 40 42 42 42 40 39 40 41 42 43 44 44
29 36 32 33 33 33 33 34 34 33 33 34 35 34 33 35 36 37 38 41 41 42 44 44 44 43 43 44 45 46 47 49 50
36 37 35 34 34 34 34 35 34 35 35 35 35 33 34 36 38 39 41 44 45 45 46 47 45 46 47 48 50 51 52 54 55
39 38 37 37 36 36 36 35 35 36 37 37 37 36 36 38 40 42 45 46 47 49 48 47 48 49 51 53 54 56 58 59 60
38 40 39 40 38 38 37 37 37 38 39 40 40 39 41 41 43 46 47 47 50 50 50 52 53 55 55 57 59 60 61 62 63
37 40 41 40 41 40 39 39 39 40 41 41 43 44 43 45 47 49 50 51 51 52 54 56 58 59 60 61 61 62 64 65 66
37 36 38 40 42 43 42 42 42 42 43 44 46 47 47 47 49 50 52 53 55 56 58 59 61 62 63 64 65 65 65 67 68
40 37 39 41 44 45 45 45 46 45 45 46 49 49 51 52 51 52 52 54 56 58 59 60 63 64 66 67 69 70 70 69 69
38 39 41 41 44 45 46 46 47 47 48 49 49 49 51 53 55 54 55 58 59 60 60 58 59 64 67 69 69 69 70 71 71

GFSFLT1_500_spd_048.txt.gz
Wind_Speed
21 21 20 20 20 20 20 19 19 19 18 18 19 20 20 20 20 21 22 22 24 24 24 24 25 24 24 23 24 24 24 24 25
21 22 21 22 22 21 21 21 21 20 21 21 22 23 24 25 26 27 28 27 27 27 26 27 27 26 24 23 22 23 23 23 25
23 22 21 21 21 20 20 19 20 20 19 20 21 21 21 23 24 24 27 26 26 26 24 24 25 24 23 23 24 24 24 25 25
24 23 21 19 19 18 18 18 18 18 19 20 21 21 22 23 24 24 26 26 25 24 24 24 25 25 26 25 25 24 23 24 25
24 23 22 20 19 19 18 19 19 19 20 21 21 21 22 24 24 27 29 28 28 26 26 26 26 26 27 27 28 28 27 29 30
25 25 23 22 21 20 20 20 21 21 21 22 24 26 28 30 29 33 35 35 33 32 32 32 32 30 30 31 32 33 35 34 34
25 25 27 26 25 25 24 24 25 26 26 27 27 27 27 29 28 30 29 32 32 33 34 35 34 34 32 32 35 37 36 34 33
26 26 27 28 28 28 28 28 29 30 29 29 29 28 28 27 26 27 23 21 22 23 23 26 28 28 28 30 33 35 36 37 37
27 27 28 27 29 31 32 32 32 32 32 31 31 30 30 29 27 29 29 26 25 26 27 27 29 30 32 32 33 35 35 37 37
30 28 28 29 30 31 33 34 34 34 34 33 32 31 32 32 31 31 31 30 29 29 28 31 32 34 35 34 35 35 35 35 34
31 30 30 29 30 32 34 35 35 35 35 34 33 34 33 33 34 30 31 31 32 32 33 35 36 36 37 38 38 38 38 38 38
33 33 32 31 31 31 33 35 36 36 35 35 35 35 34 34 33 30 31 33 34 34 35 39 39 39 40 41 40 40 40 41 43
35 36 36 32 34 33 34 35 36 35 36 36 36 36 35 34 33 32 32 33 35 36 39 41 41 42 43 43 42 43 44 46 47
35 35 37 34 32 36 36 36 36 36 36 37 36 36 36 36 35 33 34 36 37 38 41 43 43 44 45 45 45 47 49 50 50
36 36 37 37 38 40 38 38 37 38 38 37 37 38 38 38 38 38 38 39 41 42 43 43 46 47 47 49 50 53 53 53 54
36 36 37 37 40 43 39 42 40 40 39 39 39 40 41 41 41 41 42 42 44 46 47 48 49 50 51 52 54 54 55 55 56
37 38 38 39 40 40 41 42 41 43 42 41 42 43 42 44 45 46 46 48 48 48 48 51 53 53 55 56 56 56 57 57 59
39 38 40 38 36 39 37 37 38 42 45 46 46 46 47 47 47 48 48 49 49 50 52 54 56 58 58 58 59 60 60 61 63
40 39 40 39 37 40 41 41 41 43 45 48 49 50 51 51 50 50 50 49 49 52 54 56 58 59 61 62 63 65 66 65 66
42 39 40 41 40 39 41 42 43 43 44 46 47 50 52 53 52 49 51 51 54 56 58 57 58 59 61 62 65 68 68 68 69

GFSFLT1_500_spd_051.txt.gz
Wind_Speed
27 27 25 24 23 23 23 22 21 21 21 21 21 21 21 21 21 23 23 23 24 24 25 24 25 25 25 24 24 23 24 23 23
28 27 26 25 24 24 23 23 23 23 22 22 23 23 23 23 22 23 23 23 23 24 25 25 26 26 25 24 24 23 23 23 22
27 27 27 25 24 23 23 23 23 22 22 22 22 21 21 20 20 21 21 23 23 23 24 25 24 23 23 23 25 24 24 23 23
27 26 26 26 25 23 23 22 21 22 21 21 20 20 20 19 20 22 23 23 24 25 25 25 26 26 25 26 26 25 23 24 24
24 24 25 25 24 23 22 21 21 21 21 21 20 20 21 21 23 26 28 29 31 31 32 31 30 30 28 29 28 28 27 28 29
23 23 22 23 23 24 23 22 22 22 22 22 23 24 25 25 27 27 29 31 30 30 33 34 34 34 34 34 33 32 32 33 34
24 23 23 23 24 25 25 25 25 25 26 27 27 27 27 27 27 28 27 27 24 20 19 19 21 23 28 33 34 32 32 34 33
26 26 25 24 25 26 28 28 28 29 29 30 31 30 29 28 29 29 29 27 25 25 25 23 24 24 24 26 28 29 31 33 35
26 27 27 26 25 26 28 30 31 33 32 32 32 32 31 32 31 30 31 31 30 29 28 27 28 27 27 29 29 30 32 32 32
27 28 29 28 27 27 27 29 31 33 35 35 34 34 34 33 33 32 32 33 32 31 31 30 30 30 30 32 32 33 33 34 34
30 29 29 30 29 30 30 30 30 32 34 35 36 36 36 35 35 33 33 33 32 32 33 33 33 32 33 35 34 35 36 36 36
31 33 33 33 32 32 32 31 28 30 33 34 35 37 36 35 35 35 34 32 31 32 33 34 33 33 35 36 36 37 38 39 39
32 34 34 32 33 32 32 33 35 32 34 36 35 36 36 36 36 36 35 34 33 33 33 34 35 37 38 38 38 40 41 42 41
32 33 32 31 32 32 32 32 35 38 37 36 36 36 37 37 37 36 37 37 37 37 38 40 39 40 41 42 42 43 45 45 45
33 33 31 33 33 34 35 35 36 36 38 37 37 38 38 38 38 38 39 40 40 40 42 43 45 44 45 45 46 47 49 49 50
36 34 33 33 33 35 36 38 39 38 39 39 43 40 40 41 40 40 41 42 43 45 46 47 47 48 48 47 49 50 51 53 54
40 35 35 35 34 34 34 36 37 38 36 35 39 42 41 43 44 44 45 47 48 47 48 49 49 50 49 50 52 53 55 56 55
37 37 37 38 37 34 34 34 35 37 41 41 40 41 42 42 43 45 47 49 49 49 50 49 50 52 53 54 55 57 59 58 57
35 36 38 39 38 38 35 35 36 37 41 41 41 42 42 42 43 45 48 50 50 49 49 49 52 54 55 57 59 60 61 61 61
37 37 38 38 38 38 36 35 36 38 40 40 40 42 43 44 46 47 49 49 49 49 50 53 55 57 58 59 60 61 62 64 65

GFSFLT1_500_spd_054.txt.gz
Wind_Speed
27 27 27 27 27 26 26 26 25 26 26 25 23 23 23 22 23 23 24 24 24 25 25 25 25 25 26 25 25 24 24 23 23
27 28 28 28 28 28 27 27 27 26 26 26 25 25 24 24 25 23 22 22 22 22 22 24 24 24 24 24 23 22 23 24 23
28 28 28 28 28 28 27 27 25 25 25 25 24 24 21 22 23 23 21 21 22 24 25 25 25 24 25 24 23 23 24 25 24
27 27 27 27 28 28 27 26 26 26 25 23 22 21 21 22 22 22 22 23 25 27 28 30 29 28 26 25 25 26 26 25 26
24 25 25 25 26 26 26 25 25 25 24 22 22 21 21 22 23 24 25 27 30 31 32 31 32 32 31 31 30 30 30 29 29
23 22 22 22 23 24 25 25 25 25 25 24 25 24 24 25 27 28 28 28 28 29 29 26 21 20 21 24 29 33 33 32 32
24 23 22 21 22 23 24 25 26 27 27 26 27 27 28 29 30 30 30 29 29 29 28 24 22 23 23 22 22 22 23 26 29
25 25 25 24 23 24 24 24 26 28 29 31 31 31 31 32 32 32 32 32 30 30 30 29 30 27 26 26 24 25 26 27 29
26 26 25 26 25 25 25 26 26 27 29 32 33 35 35 35 34 34 34 34 32 32 32 32 32 31 30 29 28 28 28 30 30
28 27 28 28 27 26 27 28 28 28 28 29 31 33 35 36 36 35 35 34 34 33 32 33 33 33 33 32 31 31 32 32 33
29 29 30 31 30 29 29 30 31 31 30 30 29 30 32 34 34 35 36 35 34 34 34 32 32 33 35 35 34 33 35 35 35
30 30 30 31 31 31 30 30 31 32 32 33 32 31 32 34 35 35 35 35 35 35 35 33 33 33 34 35 35 36 37 37 37
30 31 30 30 30 31 30 30 30 30 32 33 33 34 34 34 35 35 35 36 36 36 36 36 35 36 37 37 39 38 39 40 41
32 32 30 29 31 31 32 32 32 32 31 33 35 36 36 36 37 37 37 38 38 38 39 38 39 40 40 41 43 43 44 44 44
32 33 32 31 32 31 31 33 33 34 34 34 37 34 37 39 39 40 39 39 40 40 41 41 42 43 44 44 46 47 47 47 47
32 33 33 34 33 33 34 34 34 34 33 36 34 37 34 33 40 43 42 42 43 44 44 45 46 47 47 47 47 47 48 49 50
34 35 33 35 36 36 35 37 36 35 35 35 35 37 37 38 38 39 40 42 42 44 45 46 47 47 49 49 49 48 49 51 53
39 38 34 33 33 34 35 36 37 36 37 36 36 38 40 39 40 40 40 41 42 44 46 47 48 49 49 49 49 51 53 54 56
41 41 38 34 34 34 35 35 36 36 37 38 38 38 40 40 37 40 41 43 44 46 48 49 49 48 48 50 52 54 56 58 60
44 42 40 40 37 35 35 36 35 35 35 37 39 40 40 41 41 41 42 43 45 48 49 49 49 49 52 54 56 57 60 62 64

GFSFLT1_500_spd_057.txt.gz
Wind_Speed
24 25 25 25 25 25 24 25 25 25 25 25 24 23 25 25 26 26 26 26 26 26 25 25 24 24 25 25 26 25 24 22 21
24 24 24 25 25 26 26 25 25 25 26 26 25 25 26 27 27 26 25 24 24 23 23 24 24 24 25 25 25 24 23 21 20
24 24 24 25 26 26 26 27 27 26 26 24 23 24 25 25 24 22 23 22 22 23 24 26 27 28 29 28 27 26 26 25 24
21 22 22 24 24 25 25 25 24 24 24 23 23 23 23 23 23 23 23 22 23 25 27 29 31 32 33 33 31 29 27 27 26
21 21 21 22 23 24 23 24 24 24 24 23 23 22 23 25 24 24 24 25 26 28 29 29 30 29 27 25 25 27 29 31 30
22 22 22 23 22 22 23 23 23 24 25 25 25 25 25 26 27 27 27 28 29 30 29 29 28 27 22 20 20 20 20 19 20
23 23 23 23 23 23 22 22 22 23 24 26 28 29 29 30 31 31 31 31 31 31 31 31 30 28 29 29 26 24 24 22 22
24 24 24 25 25 25 24 23 23 24 23 25 28 30 33 34 33 34 35 34 33 32 33 32 31 31 31 31 30 28 27 26 24
27 27 26 26 26 26 26 26 26 26 26 27 28 29 31 33 36 37 37 35 35 34 34 33 32 31 31 31 33 32 31 30 29
27 28 28 27 27 27 28 28 28 28 29 29 30 30 31 32 32 34 35 34 34 34 34 34 32 31 30 31 32 34 34 33 32
26 27 29 29 27 28 28 28 29 30 30 31 32 31 32 31 31 31 33 33 33 33 32 33 32 32 32 30 30 32 34 34 34
27 27 28 28 28 29 28 29 30 30 30 30 31 32 33 33 34 34 34 34 34 33 33 33 34 34 34 34 32 32 33 35 35
26 29 29 29 29 29 29 30 29 30 31 32 32 32 34 35 36 37 37 36 35 36 36 36 36 37 37 36 36 36 36 37 40
27 30 30 30 32 32 30 29 29 30 31 32 32 32 33 35 37 37 38 39 39 39 39 39 38 39 39 40 40 41 40 42 44
29 31 32 32 34 35 33 32 32 33 34 34 34 34 34 35 35 37 33 33 36 41 45 42 41 42 43 43 44 45 46 46 46
33 35 35 33 34 34 34 36 36 35 36 38 38 36 37 36 34 35 37 38 38 39 40 40 41 43 44 44 46 46 47 47 48
35 38 39 36 36 34 35 37 36 35 35 36 39 38 39 40 38 37 37 39 41 42 40 40 40 42 43 45 46 47 47 48 48
40 42 42 40 39 39 37 35 35 34 35 35 35 36 36 40 40 39 40 40 39 40 41 41 43 43 44 46 47 48 48 48 49
43 45 45 43 43 43 42 38 36 35 35 36 35 37 37 38 39 39 40 41 42 42 42 43 44 46 47 49 50 50 50 51 53
45 46 48 48 48 48 45 42 41 36 38 37 38 39 40 40 41 41 41 42 42 44 45 47 48 50 51 52 52 52 53 55 57

GFSFLT1_500_spd_060.txt.gz
Wind_Speed
20 20 20 20 21 21 21 21 21 22 22 22 22 24 25 24 24 25 25 26 25 25 24 23 21 22 21 22 23 22 23 22 21
19 20 20 20 20 21 20 21 20 21 22 23 24 24 25 26 26 26 25 24 23 22 22 21 21 21 23 25 26 26 24 23 23
18 18 19 19 20 20 21 20 21 21 21 22 23 24 24 24 24 24 23 23 22 23 23 22 23 24 26 27 29 28 28 25 25
18 18 18 17 18 19 19 20 20 20 20 21 21 22 23 22 23 23 22 22 23 24 24 24 26 26 27 26 26 25 22 25 27
19 18 18 18 19 19 19 20 19 19 20 21 21 23 23 23 22 23 23 24 26 27 27 27 27 27 27 26 22 18 17 16 16
21 20 19 19 20 21 21 21 21 22 22 22 22 23 24 25 26 26 27 28 29 30 30 30 29 29 29 27 25 24 24 22 20
23 22 21 20 21 21 22 22 23 23 23 23 23 24 26 27 29 30 31 31 33 35 32 32 31 31 30 29 28 27 28 26 24
23 23 23 23 23 23 23 23 23 24 24 24 24 24 25 26 28 32 33 35 35 37 36 34 33 32 31 30 29 28 29 28 28
22 23 24 25 25 25 24 24 23 24 24 26 26 27 28 28 29 30 30 32 33 33 35 34 32 32 31 31 30 29 29 29 31
22 23 24 25 26 25 26 26 26 26 26 27 28 28 29 30 31 31 31 29 30 30 31 31 31 32 31 30 30 30 29 29 31
23 24 25 26 27 27 27 27 27 26 27 27 28 29 29 30 30 31 31 32 32 32 32 31 31 30 31 31 31 32 32 31 30
24 25 25 26 26 27 27 27 27 27 27 28 29 29 30 30 31 31 31 32 33 33 33 34 32 32 32 33 34 34 35 35 34
23 25 26 26 27 28 28 28 28 27 27 29 30 30 31 30 31 32 33 34 35 36 35 35 35 35 35 36 37 36 37 38 39
26 27 28 28 29 30 29 29 29 31 32 32 32 32 33 34 33 32 32 33 34 36 33 33 34 36 39 41 39 40 40 40 41
29 30 31 31 31 32 32 30 32 32 34 34 35 36 36 37 37 36 35 35 35 34 35 37 37 36 35 36 39 41 41 42 42
32 32 33 34 35 35 34 33 34 34 34 35 36 37 37 36 36 36 37 37 36 36 36 37 38 37 37 36 37 38 39 41 42
36 36 36 35 37 36 36 37 37 37 38 37 38 35 35 34 34 34 34 35 36 37 37 38 37 36 37 37 38 40 42 44 45
41 41 41 41 40 38 39 39 41 41 43 41 41 37 35 35 35 35 36 37 36 37 37 38 40 39 38 39 41 43 45 47 49
43 43 43 43 44 42 43 45 46 45 44 43 38 38 37 37 36 37 37 38 39 39 39 40 41 41 39 40 42 44 47 49 50
45 45 44 44 45 45 46 48 48 48 45 42 43 43 40 40 41 40 39 39 40 41 43 43 44 44 42 43 46 47 49 50 51

GFSFLT1_500_spd_063.txt.gz
Wind_Speed
18 18 19 19 19 18 17 16 15 16 17 19 20 20 21 22 22 23 23 24 25 25 24 23 22 20 20 19 20 20 21 21 21
18 17 17 17 17 18 18 17 17 18 18 18 19 20 20 20 21 22 23 23 23 22 21 21 21 21 21 21 22 23 24 24 24
18 18 17 17 17 17 17 17 18 18 18 18 19 19 19 20 20 20 20 21 21 21 20 20 21 22 23 23 24 24 23 22 22
20 19 18 18 18 17 17 17 18 18 18 19 19 19 20 21 21 20 21 21 21 21 22 22 23 24 24 24 24 23 21 17 17
21 21 20 19 18 17 17 17 19 19 19 19 20 21 21 21 22 22 22 23 24 24 24 25 27 26 26 26 25 24 22 20 19
23 23 23 22 20 20 20 19 19 19 19 20 20 21 21 22 23 24 25 27 28 29 29 30 30 30 29 28 27 26 25 24 24
23 23 23 23 22 21 21 21 20 20 20 21 21 22 22 23 23 24 25 27 30 31 33 34 34 33 33 31 30 28 27 26 25
23 23 22 22 22 22 21 22 21 21 22 22 23 23 23 24 25 26 26 26 28 30 30 32 33 33 32 31 30 29 28 27 27
23 22 22 22 22 21 22 22 22 22 23 24 23 24 25 26 26 27 28 29 28 28 29 28 28 29 29 29 29 29 29 28 28
22 22 23 23 23 22 22 24 24 24 25 25 24 24 25 25 26 27 28 27 27 27 28 29 29 29 31 31 29 29 29 30 29
24 23 24 24 24 23 23 23 24 24 24 25 25 25 26 27 26 27 27 27 27 28 27 29 30 29 30 31 31 31 30 31 32
25 25 25 26 24 24 23 24 24 24 24 24 24 25 27 28 28 28 28 29 29 30 29 30 30 31 32 32 32 32 32 32 33
26 26 27 27 26 26 26 25 24 24 25 25 25 26 28 29 30 30 30 31 30 30 31 31 31 32 30 32 34 35 36 35 35
29 28 30 30 28 29 28 28 27 26 27 27 28 29 30 31 31 32 32 33 34 34 34 33 32 31 32 33 34 34 32 34 37
32 32 32 32 30 31 31 30 28 30 29 29 30 31 32 34 33 32 31 31 32 34 34 33 34 33 33 34 34 34 34 35 36
35 34 34 35 34 34 34 32 32 32 32 33 32 34 35 38 36 33 31 31 31 32 33 33 33 33 33 33 33 34 34 35 36
38 37 38 39 39 38 36 34 34 35 35 34 36 36 37 40 39 38 34 33 33 32 33 34 35 35 35 35 35 34 35 36 36
43 41 41 42 40 41 41 38 38 38 38 38 41 39 38 38 40 41 38 36 35 36 35 35 36 38 38 39 37 37 38 37 38
46 46 44 45 45 44 42 43 43 42 41 42 43 42 41 39 39 44 43 38 37 39 40 40 40 40 40 40 40 41 41 40 42
49 49 49 48 47 45 43 45 45 44 45 46 47 45 45 44 41 44 48 44 39 39 42 44 44 44 44 43 44 44 43 46 47

GFSFLT1_500_spd_066.txt.gz
Wind_Speed
17 18 18 18 19 19 19 19 18 18 17 17 17 17 18 19 20 21 21 22 22 22 22 22 21 20 19 19 19 20 21 22 22
20 20 19 19 19 20 20 20 19 18 18 17 17 16 17 17 18 19 20 20 21 20 20 20 19 20 20 20 21 22 22 23 22
21 21 21 21 20 20 19 17 17 16 16 16 17 17 17 17 18 19 19 20 21 20 20 20 20 21 21 22 22 22 22 22 20
22 22 22 21 20 19 19 18 17 17 17 18 18 18 18 19 21 22 22 22 22 22 22 23 23 23 24 24 24 25 24 22 20
24 23 23 22 21 21 21 21 19 18 18 19 19 20 21 21 21 21 22 22 23 24 25 26 26 27 28 28 28 27 26 24 24
25 25 25 24 23 22 22 21 21 20 19 19 19 19 20 21 21 22 23 24 24 25 26 28 29 31 31 31 31 30 29 27 26
25 25 25 24 23 23 22 22 21 21 21 21 21 21 21 22 23 23 24 25 25 26 27 28 29 29 30 31 31 31 29 28 27
25 24 25 25 24 24 23 22 22 21 21 22 22 22 23 23 24 24 25 26 27 27 27 28 29 29 29 29 29 28 28 28 28
26 25 25 24 24 23 23 23 21 21 20 20 21 22 23 23 24 25 25 26 27 28 27 27 27 28 27 27 28 28 28 29 28
26 24 24 25 25 24 23 23 23 21 21 21 21 22 23 23 24 24 25 25 25 26 26 26 27 27 28 29 29 29 29 30 30
27 26 26 27 27 25 25 24 22 21 21 22 21 21 22 23 23 24 25 25 26 26 27 28 29 29 30 30 31 31 32 32 32
29 28 28 29 28 27 27 25 24 24 23 22 21 21 22 23 23 25 26 26 27 27 27 27 28 30 31 31 32 32 30 32 33
33 31 31 32 31 29 28 28 27 26 26 24 23 23 23 24 25 27 28 29 29 30 30 30 30 32 32 32 31 31 33 33 33
36 35 34 35 33 32 32 31 30 29 29 27 26 25 25 25 26 28 31 31 31 30 30 30 30 31 32 32 32 32 33 33 34
39 39 38 36 35 35 35 35 33 32 31 30 28 28 27 28 28 29 31 32 32 32 31 30 30 31 32 32 32 32 33 33 32
42 42 41 40 39 39 39 38 36 35 34 33 31 32 32 30 30 31 32 32 34 34 34 34 33 32 32 33 34 35 36 36 35
45 44 44 44 43 43 43 41 40 38 37 36 35 35 36 34 34 35 35 35 35 38 38 38 36 36 36 37 38 37 39 39 39
48 49 49 48 47 46 46 43 42 42 41 40 40 40 38 39 37 38 38 38 38 40 43 43 44 44 43 43 43 43 41 41 41
52 52 52 50 49 47 47 47 46 46 44 44 42 43 43 43 41 42 43 43 43 42 42 46 45 45 46 47 48 48 46 45 45
52 53 54 53 52 51 51 48 49 51 48 47 45 46 46 47 47 46 47 47 48 47 48 52 53 48 49 51 51 52 51 50 50

GFSFLT1_500_spd_069.txt.gz
Wind_Speed
18 19 19 18 19 20 20 20 19 18 18 17 18 17 17 17 17 18 18 19 20 20 21 20 20 19 19 19 19 19 19 20 21
20 20 21 21 21 21 21 20 19 18 18 17 16 16 16 16 17 17 17 17 18 19 19 20 20 20 19 20 21 21 22 22 22
21 22 22 22 23 23 22 21 21 20 18 16 16 16 16 16 17 15 17 18 18 20 20 20 21 21 21 23 24 23 23 24 23
23 23 23 22 23 24 23 23 22 21 21 19 19 18 19 19 19 19 20 21 20 21 22 22 23 24 24 25 26 27 27 27 25
24 24 23 23 23 24 24 24 24 23 23 22 22 21 20 20 21 20 21 21 21 22 24 24 25 26 27 27 28 29 29 29 28
24 23 24 24 24 25 24 24 24 23 23 22 22 21 21 21 21 21 21 22 21 22 23 25 26 26 27 28 28 28 28 28 27
23 24 24 24 24 24 25 25 25 24 23 22 22 22 22 21 21 22 22 24 22 23 23 24 25 25 25 26 27 26 26 26 26
23 25 26 26 25 25 25 25 24 23 23 22 21 21 21 21 20 21 22 25 23 24 24 25 25 25 25 25 25 25 24 25 25
26 26 26 25 25 23 24 25 24 24 23 22 22 21 21 20 20 20 21 24 24 24 24 25 26 26 26 25 25 25 26 26 26
27 26 26 26 25 25 26 26 25 25 23 23 22 21 21 21 21 20 21 22 23 24 24 25 26 27 29 29 28 28 28 28 28
30 28 26 26 27 28 29 28 27 26 25 24 22 22 21 22 22 21 22 21 22 24 25 26 26 27 27 28 30 29 30 30 29
31 31 29 29 30 31 30 29 29 28 26 25 24 24 24 23 23 23 21 22 22 25 26 27 27 27 27 28 29 30 29 29 28
35 34 32 32 34 33 33 32 31 30 29 27 27 26 27 25 25 24 24 24 23 25 27 28 28 27 27 27 28 29 30 30 31
39 39 38 36 36 36 36 35 35 34 32 30 30 30 30 28 27 26 27 25 24 26 28 28 28 28 29 28 29 30 30 31 32
42 42 41 41 39 38 39 39 38 37 35 35 34 33 32 31 29 30 29 27 29 29 29 30 31 31 32 32 32 32 32 33 33
43 44 45 45 44 41 43 43 42 41 41 38 38 38 36 33 32 33 32 31 32 33 32 33 33 34 36 37 37 36 38 37 37
44 44 45 48 48 47 45 45 46 45 45 43 43 40 40 36 38 38 36 35 35 36 36 37 37 36 37 41 43 44 46 45 43
46 47 47 49 49 49 49 49 49 48 48 46 45 43 41 41 41 42 41 40 40 41 41 42 42 41 41 42 42 45 44 48 48
46 48 49 50 50 51 52 52 52 52 51 50 47 48 46 46 44 44 44 44 43 44 46 47 46 46 48 47 48 52 52 49 50
47 47 48 49 50 52 53 54 54 53 54 52 51 50 50 50 49 46 48 48 47 48 50 50 50 52 52 52 49 50 54 54 52

GFSFLT1_500_spd_072.txt.gz
Wind_Speed
17 17 18 19 19 18 17 18 18 18 18 19 19 18 17 17 16 15 14 15 16 15 15 16 16 17 17 18 18 18 19 21 22
19 19 20 20 20 20 20 20 19 20 21 20 19 18 17 15 16 16 16 15 15 16 17 17 17 17 18 19 20 20 20 21 22
19 19 20 21 21 21 21 21 21 21 21 20 20 20 20 18 20 18 17 17 18 17 17 17 17 18 19 20 21 22 22 22 22
20 21 21 21 21 21 21 21 21 21 21 21 21 22 22 20 20 20 19 19 19 19 17 18 19 19 20 21 22 22 23 23 23
21 21 21 20 20 20 20 21 22 22 23 23 23 22 22 20 19 19 19 18 19 19 18 19 19 20 20 22 23 23 23 23 23
21 20 20 20 21 21 21 22 23 23 24 24 23 22 21 20 19 19 20 19 19 19 19 20 21 22 22 22 22 23 23 23 22
21 20 20 21 22 22 22 23 24 24 24 23 22 21 20 20 19 20 21 19 19 19 20 21 21 21 22 22 22 22 22 21 20
20 21 21 22 23 23 23 24 24 23 23 22 22 21 21 21 19 20 20 20 19 20 20 21 20 20 21 21 21 21 22 23 22
21 22 21 23 23 23 24 24 24 24 23 23 22 23 22 21 20 19 18 21 20 20 20 20 21 21 22 23 24 25 23 23 23
24 24 24 24 25 24 26 26 27 26 25 23 23 24 22 22 19 18 20 21 21 20 20 20 22 22 23 23 23 24 24 25 24
27 26 25 26 26 28 28 28 27 28 26 25 25 25 23 23 22 18 21 21 21 21 21 21 22 23 24 25 24 24 24 24 24
30 30 28 29 29 29 30 30 30 30 29 27 26 26 25 25 24 22 21 24 22 23 22 23 24 24 24 24 24 24 25 25 25
32 33 32 33 34 33 32 32 32 33 32 32 29 28 27 28 27 27 24 26 25 24 25 25 25 25 26 25 26 26 26 26 26
35 36 36 36 35 35 35 35 36 36 35 35 32 31 31 31 30 30 29 27 27 28 26 28 27 26 26 28 29 30 30 29 30
37 37 37 38 36 36 38 39 40 40 39 38 36 35 35 34 33 32 33 34 31 29 30 31 29 30 28 29 30 32 34 33 33
39 39 39 40 39 39 39 41 42 43 44 43 40 40 40 38 36 37 37 37 36 34 34 34 33 32 32 34 34 35 35 36 37
42 41 41 41 41 42 42 43 43 43 46 47 45 44 42 40 42 42 41 40 39 40 38 39 38 37 37 38 38 39 41 40 38
44 44 42 42 42 44 44 42 42 45 47 46 48 48 46 44 44 45 42 42 42 42 43 42 42 40 41 42 41 42 43 45 45
46 45 47 45 45 45 44 44 46 47 48 49 49 51 49 49 46 46 47 46 46 45 46 44 43 46 45 46 47 45 46 50 50
47 49 50 50 47 48 49 49 47 49 51 50 51 53 53 53 53 51 49 49 51 49 48 49 53 50 47 49 49 52 51 50 51

GFSFLT1_500_spd_075.txt.gz
Wind_Speed
14 15 16 16 17 17 17 17 17 18 18 17 17 18 17 17 16 17 16 16 16 16 16 16 16 15 15 14 15 16 17 17 17
16 16 16 16 16 17 17 17 17 17 17 17 17 17 17 18 18 18 18 18 18 18 18 17 16 15 15 16 16 16 17 18 18
15 16 17 18 18 17 16 16 17 17 18 18 18 18 18 19 19 19 19 20 19 17 17 16 16 17 16 16 17 17 17 17 18
16 16 17 17 17 16 16 17 17 17 17 18 19 20 19 21 20 20 19 19 18 17 17 17 17 17 17 18 18 18 19 18 17
16 17 17 17 16 16 18 18 19 19 19 19 20 20 20 22 20 20 18 18 18 18 18 17 17 17 18 19 19 19 18 19 18
17 17 17 17 17 17 18 19 20 21 20 20 20 20 20 20 19 19 19 19 19 18 18 18 18 17 18 19 18 19 17 17 18
17 16 15 16 18 18 19 20 21 21 22 21 21 20 20 19 21 20 20 19 19 18 18 18 18 18 18 19 19 19 17 17 17
16 15 15 17 18 19 20 21 22 22 22 22 23 22 22 21 21 21 21 20 19 18 18 18 17 17 18 19 19 19 19 19 18
18 17 18 18 19 21 22 22 23 24 23 24 24 23 24 22 21 22 21 22 20 19 18 18 17 17 18 19 20 20 20 19 19
19 20 20 21 21 23 24 24 25 26 25 26 26 26 25 24 22 22 23 22 22 21 19 19 19 19 20 20 21 21 20 20 20
22 22 23 24 25 25 26 27 27 29 28 27 26 26 26 26 23 21 24 24 24 23 22 21 21 22 24 24 23 22 21 21 21
24 24 24 26 28 28 28 30 30 30 31 31 30 28 28 27 25 24 24 26 26 25 24 24 24 24 25 25 25 25 24 24 23
26 27 27 28 30 29 30 31 32 33 34 34 33 31 30 31 29 27 28 27 29 28 27 27 26 27 28 27 26 26 26 26 27
29 30 30 31 31 32 33 34 35 34 35 37 37 35 35 34 34 32 31 29 30 32 30 30 29 29 29 29 30 29 27 27 29
32 33 33 34 34 33 34 36 37 36 37 39 40 40 38 38 37 36 36 35 33 34 35 34 33 33 33 33 33 34 33 32 33
35 35 36 36 36 36 36 36 37 38 40 41 41 42 41 39 40 40 40 39 39 39 39 38 39 39 38 37 37 36 37 37 37
35 37 39 39 39 38 39 39 40 41 41 40 42 42 42 40 42 43 42 42 41 40 42 43 43 41 41 40 39 40 40 39 39
39 41 40 40 42 42 41 43 43 42 44 45 46 47 46 44 44 44 44 45 46 45 46 42 40 42 40 42 41 43 45 43 42
42 43 43 43 42 44 44 44 45 46 46 49 49 51 51 50 50 47 48 48 48 49 49 49 47 43 46 46 44 49 50 47 47
46 45 45 45 45 45 46 47 47 48 49 50 53 53 53 53 54 52 52 52 51 52 54 53 48 49 50 51 52 51 52 54 57

GFSFLT1_500_spd_078.txt.gz
Wind_Speed
11 11 13 14 13 13 14 14 16 15 16 16 16 16 17 18 17 18 18 17 18 19 19 20 20 18 16 14 15 15 15 16 16
12 12 12 13 13 14 14 14 15 15 17 16 17 17 17 17 17 18 19 19 20 20 21 21 18 16 16 16 16 17 18 17 17
13 12 13 13 13 13 13 14 15 16 16 17 16 17 18 18 18 19 19 20 20 20 19 18 17 16 16 16 16 16 17 18 18
14 14 14 14 14 14 14 15 15 16 17 17 17 19 19 19 20 19 19 19 19 18 18 17 17 16 16 16 16 17 18 18 18
16 16 15 15 15 15 15 16 16 16 17 18 18 19 20 20 20 19 19 19 19 19 18 18 18 17 16 16 16 16 18 18 17
18 17 16 16 15 15 16 17 17 17 17 18 17 18 20 21 20 19 19 20 20 20 19 19 19 17 16 16 16 17 18 17 16
18 18 17 16 15 16 17 17 18 18 18 18 18 19 20 22 22 22 21 21 22 21 21 20 20 18 16 16 16 18 18 18 17
17 17 17 16 17 18 19 18 19 20 20 20 21 21 23 24 23 23 23 23 23 23 22 22 20 18 17 17 18 18 18 19 18
18 17 17 18 19 20 20 20 22 23 23 24 24 24 24 25 25 25 25 25 24 23 23 22 21 19 18 19 19 21 21 21 20
19 18 18 20 21 22 23 22 22 24 25 26 27 26 26 27 27 27 28 27 26 25 24 24 22 21 21 21 21 22 23 24 23
22 21 22 23 23 23 23 24 24 26 28 30 31 30 30 29 29 28 29 30 29 27 26 26 25 24 24 24 23 23 25 26 25
24 24 25 26 26 26 26 28 29 29 31 33 34 34 33 33 32 31 30 31 31 30 29 29 28 28 28 27 27 26 26 26 27
25 26 27 28 29 28 29 30 31 31 32 34 36 36 37 37 36 34 33 33 33 34 34 32 32 32 32 31 30 30 29 28 28
28 29 29 29 29 29 30 31 31 32 33 34 35 36 37 38 39 39 37 36 35 36 37 37 36 36 35 35 35 34 32 32 32
30 31 32 32 30 29 30 32 33 34 36 37 37 39 40 40 40 40 40 39 38 40 42 43 42 40 40 41 41 40 39 38 35
32 33 33 34 33 32 32 34 35 36 39 40 40 43 41 38 38 41 40 40 42 43 44 43 43 41 44 47 46 45 45 44 42
33 34 35 35 35 36 36 37 38 38 41 42 44 41 42 43 45 45 46 46 45 44 46 48 46 44 45 39 41 47 45 47 47
35 35 36 38 38 38 40 41 42 41 43 42 44 45 45 46 48 49 51 50 50 48 48 48 50 50 50 51 49 42 45 45 43
37 38 39 39 40 41 42 43 43 43 42 43 45 47 48 49 49 51 51 53 54 52 51 51 45 51 55 58 54 51 48 50 48
40 40 41 41 43 43 43 43 42 40 41 42 45 47 50 52 53 54 56 58 58 59 59 55 49 50 58 50 52 57 51 50 48

GFSFLT1_500_spd_081.txt.gz
Wind_Speed
13 13 14 13 12 12 12 13 14 13 14 15 16 16 16 17 18 17 17 19 19 19 19 20 21 20 18 18 17 16 16 16 17
14 14 14 14 13 14 13 14 14 14 14 15 16 17 17 18 18 18 18 19 20 20 20 19 19 18 17 16 17 17 16 16 17
15 15 15 15 15 15 14 14 14 15 15 16 17 17 17 19 19 19 20 19 19 20 19 19 18 17 17 17 17 16 17 16 17
15 16 16 15 15 15 15 15 15 15 16 17 18 19 19 19 19 19 20 19 20 20 19 18 18 18 18 18 18 17 16 16 18
17 17 16 16 15 15 15 16 16 16 17 17 19 19 19 20 20 21 21 21 21 21 20 20 19 19 19 19 18 17 17 17 17
19 18 17 17 16 16 17 18 19 18 18 17 18 20 20 20 22 23 23 24 24 23 22 22 22 21 21 20 18 18 18 18 17
20 20 20 19 18 18 18 19 19 19 19 18 19 20 21 21 22 24 25 26 26 25 25 24 24 23 23 22 20 19 18 19 19
20 19 20 20 19 19 20 21 21 20 20 20 19 20 22 23 24 25 26 27 27 28 28 27 26 25 24 24 22 20 21 20 21
19 20 20 20 20 20 20 21 22 23 23 23 22 23 24 25 26 27 28 27 28 28 29 29 28 27 26 25 24 23 22 22 22
20 20 22 22 22 22 23 23 24 25 26 27 27 27 28 28 29 30 31 31 31 29 30 30 30 29 29 27 27 26 25 24 25
21 22 23 23 23 24 25 25 25 27 27 28 28 28 29 31 31 32 33 35 35 33 32 32 32 32 31 31 31 30 30 29 27
24 24 24 24 25 25 25 26 27 27 27 29 30 31 31 32 32 33 34 36 38 38 36 35 35 34 34 34 34 35 34 34 32
27 26 26 26 27 26 28 28 29 29 29 31 32 34 34 35 36 36 37 38 38 39 40 39 39 38 39 39 39 38 38 38 38
28 28 28 29 29 29 30 30 31 31 33 34 34 36 37 37 37 39 40 40 40 41 43 43 43 43 42 43 43 42 42 42 42
29 30 30 30 30 31 32 31 32 33 35 35 35 38 39 39 39 40 39 39 40 42 42 43 46 49 47 45 44 47 48 47 46
31 31 32 31 32 33 33 33 33 35 37 38 39 39 39 40 41 38 40 42 43 43 44 45 47 50 49 49 48 46 45 44 46
34 33 31 33 34 35 34 36 38 39 40 40 41 40 38 38 40 42 44 45 46 46 45 45 47 48 48 48 51 54 56 52 48
34 35 35 36 37 37 38 39 41 40 41 41 41 41 39 37 38 42 45 47 49 51 52 52 50 50 50 52 54 56 59 53 58
38 38 38 38 39 39 40 41 42 42 41 40 38 39 40 38 40 44 47 47 47 45 44 46 50 52 55 56 59 60 62 59 50
40 40 39 40 41 41 42 42 42 41 41 39 36 39 40 43 44 42 37 42 44 45 45 48 52 57 56 54 57 68 67 61 55

GFSFLT1_500_spd_084.txt.gz
Wind_Speed
10 10 11 12 12 12 12 13 14 14 13 15 14 15 16 15 16 17 17 17 18 19 20 19 18 19 18 17 16 16 16 16 16
10 11 12 12 13 13 14 14 15 14 15 15 15 16 17 17 18 18 19 20 20 20 19 18 18 17 17 17 17 17 16 16 15
11 12 13 14 14 14 15 15 15 15 16 16 17 17 18 18 18 19 20 20 20 20 20 20 19 18 17 17 19 18 17 16 15
12 13 14 15 15 15 15 15 15 16 17 17 18 18 18 19 18 19 20 21 21 21 22 22 22 21 19 19 19 20 19 17 16
13 14 15 15 15 15 16 15 16 17 18 18 19 19 19 19 19 20 21 22 23 23 23 24 24 23 22 22 22 21 21 19 17
14 15 15 15 16 16 17 16 17 17 19 19 20 19 19 20 22 22 23 24 24 24 24 25 26 25 25 25 24 24 22 21 20
17 18 18 17 17 17 17 18 19 19 19 20 21 22 22 22 22 23 25 25 25 26 26 26 27 27 27 27 27 26 24 23 22
17 18 18 18 17 17 19 20 21 21 20 21 21 22 23 23 24 25 26 28 28 29 28 28 28 28 29 28 28 28 27 26 25
18 19 18 18 18 18 20 21 22 22 22 22 23 24 25 25 26 27 28 28 29 31 31 31 30 30 30 29 29 29 30 30 28
19 19 19 20 19 20 21 22 23 23 24 24 24 25 26 27 27 28 29 30 30 31 32 33 33 31 31 32 31 31 32 32 31
20 21 21 21 21 22 22 22 23 24 25 26 26 27 28 29 30 31 33 33 34 34 34 35 35 35 35 35 35 36 35 35 35
22 23 24 23 24 24 24 24 24 25 26 27 27 28 30 31 31 33 35 35 36 37 38 38 37 39 40 39 39 38 38 39 39
25 25 25 25 25 26 26 26 26 26 28 29 29 31 32 34 33 37 38 39 38 39 37 36 36 38 39 40 42 42 42 42 41
27 27 28 28 27 28 28 28 28 29 30 31 32 34 35 36 37 39 40 40 40 38 38 40 41 42 42 42 42 41 44 46 46
29 30 31 29 29 29 29 30 30 31 33 33 34 36 36 37 38 41 40 39 40 40 41 42 43 45 45 44 44 44 42 43 45
32 33 33 31 30 32 32 32 33 34 36 37 37 38 38 38 39 40 38 39 39 41 42 44 44 45 45 45 45 45 46 43 46
36 34 32 32 32 33 35 37 36 37 38 39 40 38 38 37 39 38 37 38 39 42 43 42 40 38 38 38 40 42 46 49 52
37 36 35 36 37 37 38 40 40 40 39 41 41 41 39 38 34 34 36 39 41 39 37 40 38 38 41 43 43 45 47 48 51
39 38 37 39 39 39 41 43 42 41 41 42 41 40 39 36 33 34 38 39 35 40 39 42 41 43 45 45 47 48 52 56 56
41 39 39 39 41 43 43 43 41 41 42 42 40 38 35 35 35 35 37 35 37 39 41 41 41 43 46 46 50 54 61 64 60

GFSFLT1_500_spd_087.txt.gz
Wind_Speed
6 7 7 8 9 9 10 11 12 13 13 14 15 14 15 15 16 16 16 17 17 18 18 18 18 18 18 16 16 16 17 17 17
6 6 7 7 9 10 11 12 13 13 14 14 14 15 15 16 16 16 17 17 18 18 19 19 20 19 20 19 18 18 18 18 18
7 7 7 8 9 10 11 13 14 14 14 15 16 16 17 17 17 18 18 19 19 20 21 21 21 21 21 21 21 20 20 19 19
8 7 8 9 10 11 12 13 14 15 16 17 17 17 17 18 19 19 20 20 22 23 23 23 24 23 23 23 23 23 23 22 20
9 9 9 10 11 12 12 14 15 16 17 17 17 18 19 19 19 20 21 21 22 23 25 25 26 25 25 24 25 25 25 24 22
11 10 11 11 11 12 13 14 15 17 18 17 18 19 20 20 21 22 22 22 23 24 25 26 26 27 27 27 26 25 26 26 25
13 13 13 13 13 13 14 14 15 17 18 19 20 20 21 22 22 23 24 24 25 25 26 27 27 28 28 28 28 27 27 27 27
15 15 15 15 14 14 15 15 15 17 19 20 22 22 23 22 23 24 25 26 26 27 28 28 29 29 29 29 29 29 29 29 29
16 16 15 15 15 15 16 17 18 18 19 20 22 24 25 26 26 26 27 27 28 28 28 30 30 31 31 31 31 31 31 31 31
18 17 17 17 16 17 18 19 20 20 20 21 23 24 26 28 28 29 30 31 31 30 31 32 32 33 32 32 32 33 33 33 33
20 20 19 18 18 19 19 20 21 21 22 23 24 26 28 29 30 31 33 33 33 34 33 33 35 34 32 32 33 34 34 34 34
22 22 21 20 21 21 21 22 22 23 24 24 26 27 29 30 31 33 34 34 35 35 35 35 34 34 35 36 36 37 35 35 34
25 24 23 23 24 23 23 24 24 25 26 27 28 30 31 31 33 35 36 36 36 36 35 35 35 36 37 39 39 39 38 36 36
28 28 26 25 26 26 25 26 27 27 28 29 30 32 33 34 36 37 38 38 38 36 35 35 35 36 38 39 40 39 37 37 38
30 30 30 29 28 28 27 28 28 29 30 31 33 35 35 36 37 39 39 38 37 36 35 35 36 39 40 38 35 31 29 30 34
34 34 33 31 30 30 30 30 31 30 33 34 36 36 37 37 38 38 38 37 36 36 34 37 39 36 34 33 33 34 35 34 34
33 32 33 31 30 31 32 32 33 35 37 38 39 37 38 38 38 37 39 37 35 34 36 37 34 33 35 35 36 38 40 40 40
35 36 36 35 35 34 34 37 36 37 39 42 43 42 38 36 34 35 34 34 35 36 35 32 32 35 39 40 40 40 43 44 45
41 41 40 39 38 37 36 38 40 41 43 42 43 43 40 39 36 36 33 35 35 35 32 33 34 36 40 42 43 42 44 44 45
43 42 41 40 40 39 38 40 41 44 44 43 43 42 40 38 40 37 34 34 36 33 33 34 35 39 43 44 43 43 42 41 45

GFSFLT1_500_spd_090.txt.gz
Wind_Speed
5 5 5 6 6 7 7 8 8 9 10 11 12 12 13 14 15 15 16 16 16 17 18 19 20 20 20 20 21 22 21 20 20
5 6 6 6 6 7 7 8 8 9 10 11 13 14 14 15 15 16 16 17 18 18 19 20 21 23 23 23 22 23 23 22 23
7 6 7 6 6 7 7 8 8 9 11 13 14 15 15 15 15 16 17 18 18 19 20 21 22 23 23 23 23 23 23 23 23
7 7 7 7 6 6 7 8 9 11 12 13 14 14 15 16 16 18 19 20 20 20 21 22 24 25 24 25 25 23 23 23 23
7 7 8 7 6 7 8 10 11 12 13 14 14 15 16 18 19 19 20 21 22 22 24 24 25 24 25 25 25 24 24 23 23
8 8 8 8 7 8 9 11 12 13 14 15 16 17 18 19 20 21 21 22 23 24 25 24 24 25 26 27 26 26 24 25 25
10 9 9 9 8 9 10 12 13 14 16 16 17 18 19 21 23 23 23 24 25 26 27 26 26 27 28 27 27 27 27 27 27
13 11 11 10 10 10 12 13 15 16 18 18 20 21 22 22 24 25 26 26 27 27 28 28 29 29 29 29 29 29 29 28 29
15 14 14 13 13 13 13 14 15 17 18 20 22 23 24 25 27 27 27 28 29 30 30 30 30 30 29 28 27 27 28 29 30
18 17 17 16 15 15 16 16 17 18 19 21 23 23 24 26 28 28 29 29 31 31 32 31 30 30 29 28 28 29 29 30 30
20 20 19 18 18 18 18 19 19 20 20 23 23 24 26 27 29 30 31 32 33 33 32 32 32 30 30 30 29 30 32 32 32
22 22 21 21 21 21 21 21 22 22 23 24 24 25 27 28 31 33 34 34 35 35 34 33 32 31 30 30 31 34 35 36 37
25 25 23 23 23 23 23 24 24 24 26 26 26 27 29 30 33 35 36 37 36 36 35 34 32 31 30 32 34 34 34 32 31
28 28 26 26 25 26 26 25 25 27 29 29 28 28 30 32 35 36 38 38 37 37 36 35 32 31 32 34 33 30 29 31 33
31 31 29 28 28 28 27 27 28 30 31 30 29 30 32 33 37 38 39 40 39 38 37 34 32 32 34 32 29 31 32 32 33
34 34 32 31 30 30 30 30 31 31 32 30 31 33 34 36 39 40 41 41 40 38 37 34 33 33 32 28 29 33 35 37 37
38 34 33 33 32 31 30 31 33 33 33 34 34 33 36 39 41 43 42 40 41 39 37 34 34 33 31 30 31 34 37 39 41
35 34 36 36 35 33 35 35 36 35 35 37 37 36 39 40 40 40 41 41 41 38 37 34 34 33 32 32 34 38 40 41 41
39 38 38 38 39 39 39 37 38 39 38 39 38 39 41 45 44 39 38 40 39 37 35 34 34 34 34 34 37 40 42 42 42
41 41 42 41 42 42 39 40 40 40 40 39 39 40 45 46 43 41 39 38 41 38 36 35 34 34 34 37 40 42 43 43 40

GFSFLT1_500_spd_096.txt.gz
Wind_Speed
4 4 3 4 4 3 3 3 4 5 6 7 8 9 10 11 13 14 15 16 16 16 17 18 20 22 23 23 22 22 23 23 22
5 4 3 4 4 3 3 3 4 5 6 7 9 10 11 12 13 14 15 16 17 18 18 19 21 22 22 23 22 24 24 24 22
6 4 4 4 4 3 2 3 4 5 6 8 9 11 12 13 14 15 16 17 17 18 19 20 21 22 22 22 22 24 26 23 23
6 4 5 5 4 3 3 3 3 5 6 8 10 11 13 14 14 15 18 18 18 19 19 20 21 22 22 23 23 26 25 23 24
6 6 6 5 4 3 3 2 3 5 7 8 10 11 13 14 13 15 19 20 20 20 22 23 25 25 24 23 25 26 25 24 23
8 8 8 6 5 5 4 3 4 5 7 8 10 11 14 14 14 15 18 20 22 22 24 25 26 26 25 25 28 28 26 24 24
11 10 9 8 6 6 5 5 5 6 8 9 11 12 14 16 15 16 18 20 23 24 25 27 28 28 26 27 29 29 26 25 25
14 12 11 9 8 7 7 8 8 8 10 11 12 13 15 17 17 18 19 21 24 26 27 28 28 28 27 29 30 29 27 25 25
16 15 13 12 10 10 9 10 10 11 12 13 14 15 16 17 19 19 20 22 25 28 29 30 30 30 28 30 30 29 27 26 26
18 17 15 14 14 13 13 13 13 14 15 16 16 18 18 20 21 22 22 24 26 29 32 32 32 31 30 30 29 29 27 26 26
21 19 19 18 17 16 16 16 16 17 17 18 19 19 20 21 23 22 25 26 27 30 32 34 33 32 31 30 30 29 27 28 27
24 22 22 22 21 20 20 19 19 19 19 20 20 21 21 23 25 25 26 28 29 32 33 37 33 32 31 30 32 30 28 27 26
28 26 27 26 24 24 23 22 21 21 22 21 21 21 22 23 25 26 28 29 31 34 35 40 34 34 31 29 30 30 30 28 27
33 31 30 28 28 27 25 24 23 23 22 22 22 22 23 25 27 28 29 29 33 35 36 41 34 33 30 31 31 29 28 27 28
39 35 33 33 32 30 28 28 26 25 24 24 23 20 24 26 28 30 32 33 33 34 40 40 35 32 29 31 31 30 30 28 29
41 41 40 39 36 33 32 31 29 28 26 24 23 24 27 27 29 31 34 36 34 36 42 39 36 31 29 32 32 31 30 30 31
45 47 45 44 40 39 37 34 33 30 28 27 26 26 29 28 31 32 34 36 36 39 44 42 39 35 32 35 34 33 30 31 31
47 49 49 47 44 44 41 38 37 35 31 29 30 30 28 31 31 32 33 35 37 42 47 45 38 35 35 34 36 32 31 30 30
41 42 48 51 47 46 45 43 41 35 35 32 31 30 35 31 32 34 36 37 39 46 45 39 38 35 36 38 36 31 32 30 32
38 42 44 50 53 55 52 50 48 47 40 33 31 32 34 40 32 36 39 40 44 43 41 37 36 37 39 38 33 31 31 32 32

GFSFLT1_500_spd_099.txt.gz
Wind_Speed
5 4 4 4 3 3 2 1 1 3 4 6 7 8 9 9 11 12 13 14 14 14 15 17 18 19 20 21 22 22 24 25 22
6 5 6 4 3 3 2 1 1 3 4 5 6 7 9 9 10 11 13 14 14 15 16 17 19 20 21 22 22 24 27 25 24
7 7 6 5 3 3 2 1 1 2 3 5 6 7 8 8 10 11 14 14 15 16 18 20 21 22 22 21 21 25 27 26 24
9 8 6 4 4 4 3 2 1 1 2 4 6 7 8 9 8 10 12 13 15 17 18 20 21 22 23 22 22 26 27 25 23
10 8 7 5 6 5 4 3 2 1 1 2 4 5 8 9 8 9 11 13 16 18 19 21 23 23 23 22 23 27 27 25 24
12 10 9 8 8 7 6 5 4 3 2 3 4 5 7 8 9 9 11 13 16 18 20 23 25 25 25 24 23 27 27 26 24
14 12 11 10 9 9 7 7 5 5 5 5 5 6 8 9 11 11 12 14 17 19 21 24 27 26 26 26 24 25 26 27 25
17 15 13 13 12 10 9 8 8 8 8 7 8 8 9 10 11 13 14 14 18 19 23 25 28 28 27 26 25 25 27 28 25
18 18 16 15 15 13 11 11 11 11 12 11 11 11 12 13 13 15 15 16 18 20 23 26 29 32 28 27 26 25 28 28 25
20 19 18 17 17 15 14 14 14 14 15 14 14 14 14 14 15 16 17 17 19 22 24 28 31 34 30 28 27 25 28 28 25
22 20 20 20 19 18 17 16 17 18 18 17 17 17 17 17 17 18 18 18 20 21 24 28 31 35 31 30 29 26 28 30 26
24 24 24 23 22 21 20 20 20 21 20 19 19 19 20 19 18 18 19 20 22 23 25 28 30 34 30 29 30 29 30 30 27
28 27 27 25 26 25 24 24 24 24 23 22 21 21 21 22 21 20 21 23 24 26 28 31 32 37 32 30 26 28 32 32 28
30 30 30 30 30 30 27 27 27 28 26 25 24 23 24 24 21 21 23 24 27 28 29 32 34 37 30 31 29 31 32 30 27
33 34 34 35 33 33 33 30 30 30 29 28 27 25 26 24 24 24 26 27 27 30 31 32 35 38 36 29 27 30 34 32 29
37 38 39 38 37 38 37 36 34 33 32 32 30 27 28 27 27 26 28 30 29 30 33 34 36 41 35 29 28 30 32 34 30
37 40 35 43 43 43 41 39 39 38 35 34 34 31 33 32 31 29 32 35 32 32 34 36 37 38 34 28 25 30 33 33 30
41 42 38 38 40 45 46 48 45 42 38 38 38 37 36 35 33 31 37 32 33 32 34 35 39 38 32 29 28 33 35 31 28
42 41 40 33 34 41 44 39 44 44 40 40 39 40 38 40 35 35 31 36 32 32 33 37 37 32 31 29 30 34 33 31 27
49 47 46 46 42 34 30 30 38 39 42 43 48 35 35 35 35 38 37 33 30 31 34 37 34 33 31 31 34 35 33 30 26

GFSFLT1_500_spd_102.txt.gz
Wind_Speed
7 6 5 6 6 5 4 3 2 2 3 2 4 5 5 5 6 7 9 9 11 12 13 15 17 18 19 20 19 20 24 25 25
8 7 7 6 6 5 4 3 3 2 2 3 4 4 4 4 5 6 8 9 11 12 14 16 18 19 20 20 20 22 26 26 25
9 8 7 7 7 5 4 4 3 3 3 3 2 3 4 4 4 6 8 9 11 12 14 16 18 20 20 21 22 22 25 26 26
10 10 9 8 7 7 6 5 4 3 2 2 1 1 3 4 4 5 8 9 11 13 14 16 18 20 21 22 22 22 24 26 26
12 11 10 10 8 8 7 7 6 5 3 3 2 2 3 4 6 6 8 9 11 13 15 16 19 22 22 22 23 23 23 24 26
13 12 12 11 9 8 9 9 8 7 6 6 4 4 5 6 7 8 9 10 11 14 15 18 20 23 24 23 23 23 23 23 26
15 14 13 12 11 10 10 10 10 9 8 7 7 7 8 8 9 10 11 12 13 15 17 20 22 25 26 26 24 23 23 23 26
17 15 14 14 13 13 12 12 12 11 11 10 10 11 10 11 11 11 12 13 14 16 19 21 24 26 28 28 25 24 23 24 26
18 18 18 17 16 16 15 14 14 14 13 13 13 13 14 14 13 14 14 15 15 17 19 21 25 27 29 29 27 25 26 25 26
20 20 20 19 19 19 19 17 16 17 16 17 15 15 16 16 16 16 16 17 17 19 19 21 26 29 31 32 29 26 25 26 27
21 21 22 22 20 20 19 19 19 19 19 19 18 18 19 19 18 18 18 18 19 20 21 23 27 30 31 33 31 29 27 26 26
21 22 22 23 22 22 21 21 22 22 23 22 22 21 21 21 20 20 21 21 21 21 22 23 27 30 31 32 31 29 28 27 27
23 24 25 25 25 24 24 24 24 25 26 26 25 24 25 24 24 24 23 23 23 24 24 25 27 31 32 34 35 30 28 27 28
26 27 27 28 28 28 28 27 27 29 29 28 28 28 28 29 28 27 25 25 26 27 27 27 29 30 32 34 36 34 31 26 28
29 29 30 32 32 33 33 32 32 34 33 32 31 31 32 33 32 29 29 28 29 30 31 33 32 32 32 35 36 29 29 27 30
33 34 33 33 34 35 37 38 38 38 36 34 34 34 34 35 35 34 32 32 32 33 31 35 32 32 32 35 33 28 27 28 31
38 39 37 34 34 35 34 38 40 39 39 40 42 39 39 38 38 38 39 36 36 34 35 34 32 32 33 35 29 26 24 29 31
41 42 42 40 39 40 35 35 33 34 39 31 31 47 49 49 48 46 44 42 42 38 34 34 32 30 32 32 29 28 27 31 32
39 40 45 44 43 39 34 35 30 28 28 33 37 42 39 39 38 45 43 44 44 35 33 32 30 30 33 30 29 29 30 32 33
47 42 40 44 42 43 39 31 28 21 26 28 29 30 39 39 37 42 39 43 31 28 28 31 30 31 32 29 29 30 31 33 32

GFSFLT1_500_spd_105.txt.gz
Wind_Speed
7 6 5 6 6 6 6 5 3 2 1 1 1 2 3 3 5 5 6 7 8 10 12 14 16 17 18 19 20 21 23 24 25
9 7 6 6 6 6 6 5 3 3 2 1 1 1 2 4 5 5 7 7 9 11 13 15 16 18 19 20 21 23 23 24 25
9 8 8 7 7 7 6 5 4 4 3 2 1 2 3 4 5 5 7 8 10 12 13 15 16 19 20 21 21 22 23 23 24
9 9 8 8 8 8 7 6 6 5 5 4 4 4 5 5 5 7 8 9 11 13 13 16 18 19 21 22 23 24 24 23 23
11 10 9 9 9 8 8 6 7 8 7 6 6 6 6 7 7 8 9 10 12 13 15 17 19 20 22 24 25 25 24 23 23
12 11 10 11 10 9 8 8 9 9 9 8 8 9 8 9 10 9 10 11 13 14 16 18 20 21 23 25 26 26 24 23 23
14 13 12 12 11 10 10 9 10 11 12 11 10 11 12 11 12 12 12 13 15 16 17 19 21 22 25 26 27 27 26 25 24
16 15 15 15 14 13 12 12 12 12 13 14 14 14 14 14 14 14 15 16 17 18 19 20 21 23 25 27 28 27 27 27 25
18 17 17 16 16 15 15 15 14 14 15 15 16 16 16 16 16 17 18 18 19 20 21 21 21 25 26 28 29 30 28 27 27
19 19 19 19 18 18 18 17 17 16 16 16 17 19 19 19 19 19 20 20 21 22 22 22 23 26 27 29 29 29 30 28 28
19 20 20 20 20 20 20 19 19 20 19 19 19 20 21 21 22 21 23 23 24 24 24 24 25 26 28 31 31 31 31 29 28
21 21 22 21 22 22 22 22 21 22 22 22 21 20 22 24 24 24 25 26 26 26 25 26 27 29 31 32 33 32 31 31 28
22 23 24 24 24 23 24 25 24 26 27 26 26 24 24 25 27 27 29 29 29 28 27 28 28 30 32 35 35 34 32 31 26
23 24 24 25 26 26 27 28 28 30 31 31 31 30 28 29 29 29 31 31 32 31 29 31 31 32 32 35 34 33 35 32 26
24 25 26 27 28 29 30 30 30 32 35 36 37 35 32 32 33 32 33 33 34 35 35 35 34 32 33 32 33 33 33 30 26
26 28 29 30 30 30 32 33 32 34 37 37 41 38 36 39 38 37 39 37 36 37 39 39 38 38 37 33 32 32 30 28 26
30 32 32 33 33 33 34 34 35 39 44 37 36 38 40 42 45 44 45 42 45 46 42 43 43 42 38 34 32 31 31 28 26
33 33 34 36 37 39 39 40 41 39 35 36 28 25 36 38 30 35 41 43 40 39 42 44 45 43 36 35 32 31 29 29 28
37 36 38 38 37 36 37 37 40 40 36 24 24 26 24 26 32 33 33 39 39 43 41 42 44 34 32 35 32 31 30 29 28
38 41 42 42 44 40 35 33 31 32 31 35 28 32 33 35 31 31 38 43 41 43 43 43 37 30 34 33 32 32 30 30 30

GFSFLT1_500_spd_108.txt.gz
Wind_Speed
8 7 6 5 5 4 5 5 3 1 0 0 1 1 2 5 6 7 7 8 9 11 12 14 16 17 18 19 19 21 23 24 23
9 8 6 6 5 5 5 5 3 2 2 1 2 1 2 4 5 7 8 8 10 11 13 15 17 17 18 20 20 22 23 23 24
10 8 7 6 6 6 5 5 4 3 3 3 3 3 3 4 5 6 9 10 10 12 14 15 17 19 19 20 22 23 24 24 23
11 9 8 6 6 6 5 6 5 5 5 5 5 5 6 6 8 8 9 10 12 13 15 16 17 18 19 21 23 24 24 24 25
11 10 9 7 7 7 7 7 6 7 7 6 7 7 8 9 10 11 11 11 13 15 16 17 18 18 20 21 23 24 25 24 25
11 11 10 8 8 8 7 7 7 7 8 8 9 9 10 10 11 12 13 14 15 16 17 18 20 20 20 23 25 25 24 24 24
13 12 11 10 10 9 9 9 9 9 10 10 11 12 12 12 13 14 15 16 17 19 19 20 21 21 21 24 26 26 25 26 25
15 14 14 13 13 12 12 11 11 11 12 12 13 14 14 14 15 16 17 18 19 21 22 22 23 23 24 25 27 29 29 28 27
16 16 16 16 15 15 14 14 13 14 14 14 14 15 16 16 17 17 18 18 20 22 24 25 25 26 26 26 28 31 30 30 29
17 17 18 18 17 16 16 16 16 16 17 18 18 18 18 18 18 18 19 19 21 23 26 26 27 27 27 28 29 33 33 31 31
19 19 20 20 20 19 18 19 19 19 19 20 20 20 21 21 20 20 21 22 23 25 27 28 29 28 28 29 31 36 35 34 32
22 22 22 22 22 22 22 22 23 22 21 21 21 23 24 24 24 24 24 25 26 27 28 30 31 30 30 32 33 38 35 33 32
24 24 24 24 24 24 23 23 23 25 26 26 26 26 27 29 29 27 27 27 28 29 29 28 30 33 35 36 38 42 37 35 33
25 24 23 23 22 22 23 23 24 26 27 28 28 30 32 32 33 31 29 31 30 28 30 29 29 33 36 37 38 41 42 37 34
24 24 23 23 22 22 22 24 25 26 27 28 30 33 36 39 39 33 32 35 35 36 37 35 32 34 37 38 39 40 41 36 36
24 23 24 23 24 25 27 27 27 28 28 30 32 36 40 37 36 37 35 38 41 40 43 41 43 41 43 42 41 41 38 36 34
26 26 25 26 26 28 31 30 30 33 33 35 36 41 43 37 32 31 34 34 32 31 36 35 36 38 40 41 43 44 32 33 32
27 24 27 30 31 32 33 33 35 36 35 34 36 39 28 27 23 26 30 29 34 30 35 35 36 37 41 41 43 46 33 31 31
32 35 31 30 34 35 36 35 34 32 30 37 35 31 22 19 24 27 28 30 30 32 33 38 41 43 41 42 41 33 34 34 32
24 23 27 31 33 38 33 28 32 35 33 35 21 25 36 29 27 29 29 32 33 34 39 38 41 46 47 46 35 34 38 35 35

GFSFLT1_500_spd_111.txt.gz
Wind_Speed
6 6 5 5 3 4 3 4 3 2 1 1 1 1 2 4 5 6 7 8 9 11 12 13 15 15 16 16 17 19 21 22 22
9 8 7 6 5 3 4 4 4 3 2 1 1 1 2 4 5 7 8 9 10 11 14 15 15 15 16 17 18 20 22 23 23
11 10 9 7 5 4 4 4 4 4 3 3 3 3 4 5 6 8 9 10 12 14 15 16 17 17 17 18 20 22 24 25 24
13 11 9 7 5 5 4 4 5 5 5 5 5 5 5 6 7 9 10 11 13 15 17 18 19 19 19 20 22 23 25 24 24
13 12 10 8 6 6 5 5 5 6 6 6 6 7 8 8 9 10 11 13 14 16 18 18 19 20 21 21 23 25 26 26 25
13 13 11 10 8 7 7 7 6 7 7 8 9 10 10 10 10 12 13 13 14 16 18 19 20 20 21 21 23 24 28 29 27
14 13 12 13 10 9 9 8 7 8 9 10 10 11 12 12 12 13 13 14 14 16 18 19 20 21 22 22 22 23 29 29 28
15 15 14 14 12 11 11 10 9 9 10 11 12 13 14 14 15 15 16 15 16 17 18 20 22 22 23 23 23 24 28 31 29
16 16 15 15 15 13 13 13 13 13 13 13 13 15 16 16 17 18 17 17 17 19 20 22 23 23 24 24 24 26 27 33 32
18 18 17 18 17 17 16 16 16 16 17 17 17 17 18 18 18 19 20 19 19 20 22 24 24 24 25 25 26 28 30 32 35
18 19 18 20 20 19 19 19 19 19 18 19 19 20 20 20 20 21 23 23 23 25 25 26 26 26 26 26 27 30 31 32 35
22 21 20 21 21 20 21 21 21 21 20 20 21 22 23 23 24 25 27 27 27 28 29 30 30 26 27 29 28 30 31 34 34
25 24 24 23 22 22 22 22 21 22 22 22 23 24 25 26 27 27 28 30 31 31 30 29 30 32 32 32 32 34 34 34 35
26 24 23 23 23 21 22 22 22 23 23 22 22 24 24 25 28 30 31 33 34 32 32 31 31 34 36 39 39 38 38 36 35
27 23 22 22 22 22 21 22 22 21 21 23 24 24 25 27 29 30 34 34 32 33 34 35 36 36 36 34 33 36 36 36 34
25 24 23 22 22 22 24 24 23 23 24 26 27 29 29 30 34 38 39 34 31 30 33 31 29 28 27 30 34 34 38 37 38
27 25 26 25 25 27 26 26 25 26 27 30 32 33 31 32 36 39 36 31 27 26 28 31 34 34 31 30 34 38 39 38 38
27 25 26 25 26 26 28 28 30 28 30 29 29 28 29 31 29 26 26 27 27 28 28 29 31 35 34 36 38 41 41 42 39
29 28 31 32 27 29 32 30 31 31 30 28 21 23 28 19 19 25 25 24 26 32 31 32 34 35 39 37 39 46 42 48 39
32 30 34 24 27 34 35 30 23 24 24 24 35 37 38 40 44 40 36 30 34 29 32 36 38 36 34 34 36 29 39 36 37

GFSFLT1_500_spd_114.txt.gz
Wind_Speed
8 7 6 5 5 4 3 2 3 2 1 1 2 2 1 4 4 5 6 7 9 11 13 13 13 14 14 15 17 19 21 23 23
10 9 7 6 6 5 4 2 2 2 3 3 2 2 2 4 5 6 7 8 10 12 13 14 15 16 15 16 17 18 20 23 23
12 10 8 7 7 7 5 3 3 3 4 4 4 3 3 4 5 6 8 9 10 12 14 15 15 16 16 17 18 19 21 23 23
14 12 11 9 9 8 7 6 4 5 6 6 6 6 5 5 7 7 9 10 11 13 14 15 16 17 17 18 18 20 20 24 24
17 15 13 11 11 9 9 9 6 6 7 7 8 8 8 8 9 9 10 12 12 14 15 16 17 18 18 19 19 20 21 25 28
18 17 15 13 12 10 10 10 8 7 8 9 9 10 10 10 11 11 12 13 14 14 15 16 18 19 20 21 20 20 22 25 28
20 19 17 16 14 12 11 10 9 9 9 10 11 11 12 12 12 13 13 14 14 14 16 17 18 20 21 21 21 22 23 26 29
21 20 18 17 15 13 12 11 11 11 11 11 12 13 14 14 15 15 16 16 16 17 18 19 20 20 22 23 23 22 24 27 29
22 22 20 17 17 15 13 13 14 14 15 15 15 15 16 16 16 17 18 19 19 20 21 22 22 23 24 24 24 24 26 27 29
24 22 21 19 19 18 16 16 17 17 18 18 18 17 17 18 18 19 20 21 22 24 25 26 26 26 27 28 26 26 26 28 30
26 24 23 21 21 20 19 19 20 20 20 20 21 20 20 21 22 22 23 24 26 28 29 30 30 29 28 27 29 29 28 29 31
27 26 24 23 23 22 21 20 21 22 22 23 23 23 23 24 25 26 28 29 30 31 31 33 33 31 29 27 31 33 32 34 35
29 28 28 26 25 24 23 22 23 24 24 24 25 25 26 26 26 26 27 28 30 32 32 36 35 34 32 33 34 34 33 33 30
33 31 29 27 25 25 25 24 25 25 23 24 25 24 24 23 24 26 28 29 30 32 34 35 33 34 34 33 31 30 28 31 34
31 30 29 27 26 27 25 25 26 23 22 22 23 23 24 26 28 29 30 32 35 37 38 36 34 32 30 29 30 29 29 31 34
33 31 29 28 29 28 27 27 27 23 24 25 24 25 27 29 30 32 34 35 36 37 33 35 35 32 31 32 34 33 33 31 34
34 33 32 30 28 28 27 29 29 24 26 26 25 27 29 30 31 31 33 32 29 27 26 27 27 31 33 35 35 37 38 37 38
35 34 31 28 28 28 31 29 29 27 27 23 25 30 29 28 27 27 23 20 27 29 29 32 30 31 31 32 36 40 42 39 39
41 37 30 29 28 31 30 29 26 26 28 27 25 19 21 24 25 27 34 36 35 34 33 39 34 31 33 39 38 42 37 40 39
38 34 33 30 25 29 30 25 34 23 13 18 19 21 22 27 29 30 32 34 38 37 37 37 40 45 47 46 47 42 40 41 37

GFSFLT1_500_spd_117.txt.gz
Wind_Speed
12 10 8 7 5 4 3 1 1 1 2 3 4 4 2 3 4 5 6 7 8 9 10 11 13 14 15 15 14 15 17 19 20
12 11 10 8 7 6 5 3 2 3 3 4 4 3 1 2 3 4 5 7 9 10 11 12 13 15 16 15 15 16 17 19 23
15 14 12 10 8 7 6 5 4 4 4 5 5 5 3 3 4 5 7 8 10 11 12 13 14 15 17 17 18 18 18 20 24
19 17 14 12 10 9 8 7 7 6 6 6 6 6 5 6 6 7 8 8 10 11 12 13 14 15 17 18 19 18 19 20 24
21 19 17 14 13 11 9 7 8 7 7 7 8 8 8 9 9 9 10 11 11 12 13 14 15 16 19 20 21 20 20 21 24
22 21 19 17 14 13 11 9 9 9 8 9 10 10 10 11 12 12 13 14 14 14 15 16 17 18 20 22 23 23 23 22 25
24 23 20 17 16 14 12 11 10 10 10 10 10 11 12 13 14 14 15 16 17 18 19 20 20 21 23 24 25 26 26 25 26
24 23 21 19 18 16 14 13 12 12 12 11 12 13 13 14 14 16 17 18 18 20 21 22 24 25 26 27 27 28 29 29 30
27 24 23 22 20 18 16 15 15 15 15 15 14 14 15 16 17 18 18 20 22 23 24 25 27 28 30 29 29 29 29 29 30
29 27 25 24 22 19 19 18 17 17 18 18 17 17 18 19 20 21 22 23 24 26 28 29 30 31 32 32 31 30 29 31 31
31 29 27 25 23 21 21 21 20 20 21 20 20 20 20 22 22 23 25 26 27 28 30 30 31 32 33 35 32 31 31 34 34
32 30 28 26 25 24 24 24 23 22 22 22 22 23 23 24 25 26 27 28 28 27 29 30 33 34 35 34 33 32 35 34 31
34 32 31 29 28 27 27 25 24 22 22 23 24 24 24 24 26 27 27 27 27 28 30 32 33 35 37 35 33 30 29 29 29
35 33 32 31 29 28 26 24 23 22 23 25 24 23 23 23 25 26 26 28 30 30 31 35 37 36 36 34 32 29 29 31 32
38 36 35 32 30 29 26 24 24 25 25 25 22 22 22 24 27 29 29 30 31 32 35 37 41 34 31 30 30 31 32 32 34
41 38 34 33 33 28 26 25 27 26 25 22 20 23 25 28 29 30 31 30 32 34 32 30 29 29 26 28 30 33 33 33 34
39 35 36 36 31 30 27 28 27 26 22 21 24 25 28 28 27 29 29 24 27 27 24 31 33 32 35 32 33 35 33 34 36
40 40 39 35 32 29 30 29 26 24 25 27 26 24 25 23 18 17 20 23 24 26 29 32 34 34 32 35 39 39 41 45 44
45 40 40 37 34 30 31 28 28 29 27 24 24 7 8 12 13 18 22 27 29 32 33 35 37 38 37 36 39 44 49 51 54
44 42 41 40 33 32 31 35 31 28 27 22 5 8 9 15 15 18 22 23 28 32 33 34 37 40 41 43 42 43 47 48 47

GFSFLT1_500_spd_120.txt.gz
Wind_Speed
13 12 11 9 7 7 4 3 2 2 4 5 5 5 3 3 3 4 4 6 7 8 10 11 12 14 16 16 17 17 16 18 19
14 14 12 11 10 8 6 5 4 3 4 5 6 6 3 1 1 2 4 5 7 9 10 12 13 15 17 19 20 20 19 19 21
16 15 13 12 11 9 8 7 6 4 4 5 7 7 4 2 2 4 5 6 8 10 11 13 15 17 18 20 21 22 22 21 22
19 17 16 14 14 12 10 9 8 7 6 6 8 8 7 5 5 6 8 9 11 12 15 16 18 19 20 22 24 25 25 24 24
23 20 19 17 16 14 12 11 10 9 8 8 9 9 9 8 8 9 10 12 13 14 16 18 20 21 23 25 26 26 27 27 26
23 23 21 19 17 16 14 13 11 10 9 9 9 9 9 10 10 11 12 13 14 15 17 19 20 22 25 26 28 28 29 29 28
26 25 23 21 19 18 16 15 13 11 10 10 9 10 10 11 11 12 13 14 15 17 19 21 22 23 25 27 28 30 30 31 30
27 26 25 23 21 20 18 17 15 13 12 12 11 11 12 13 13 14 15 16 18 20 21 23 24 26 27 28 30 31 32 32 30
28 28 27 25 24 22 20 19 16 15 14 13 13 13 14 14 15 17 17 19 21 22 24 26 26 27 28 28 30 33 34 32 32
31 30 28 27 25 23 22 20 18 17 16 16 15 16 16 16 18 20 21 22 24 25 27 28 28 27 28 30 30 34 34 32 32
33 31 30 28 26 25 23 22 20 19 18 18 17 18 18 18 19 21 22 24 25 27 27 27 27 28 29 30 33 33 31 30 28
34 32 30 30 29 28 25 24 22 21 20 20 20 19 18 19 20 22 24 25 26 26 26 26 29 31 33 34 34 32 31 28 27
33 32 31 31 30 29 27 25 23 23 22 23 20 18 19 21 22 23 23 25 26 26 28 28 30 34 36 37 35 29 29 26 28
34 33 33 32 32 31 28 26 24 24 24 23 20 19 21 22 22 22 24 25 26 28 29 30 32 31 28 27 25 24 27 27 29
36 35 36 34 34 31 28 25 26 25 25 24 22 21 21 21 21 22 25 26 26 27 27 28 26 22 25 26 27 29 29 30 31
38 38 36 35 33 30 28 29 28 27 25 23 22 22 22 22 22 25 24 25 24 20 20 20 23 26 28 28 28 28 32 35 36
40 40 38 37 33 32 33 30 30 29 25 23 24 22 24 24 24 21 17 10 10 14 17 22 24 25 27 30 31 32 34 37 40
42 42 40 38 36 36 33 31 31 28 25 25 22 24 28 27 19 7 8 8 11 14 19 22 25 28 29 31 34 36 39 42 42
47 45 40 41 37 37 35 33 30 28 27 24 29 30 27 13 7 2 7 11 13 15 21 24 25 25 26 30 32 35 37 40 42
48 45 45 43 40 39 38 34 31 30 28 33 37 30 15 10 4 4 9 10 12 13 25 23 23 25 28 32 35 36 35 37 39

GFSFLT1_500_spd_123.txt.gz
Wind_Speed
15 14 13 12 9 8 7 5 4 1 3 5 7 7 5 4 3 2 1 2 5 8 11 14 16 17 19 20 22 22 23 23 23
17 15 14 13 11 9 8 8 7 4 4 6 8 7 4 3 2 1 2 4 7 9 12 15 17 18 20 21 22 24 25 26 25
19 16 15 13 12 11 9 10 9 8 6 7 8 9 6 4 3 3 4 6 8 10 13 15 17 19 20 21 23 23 25 26 28
20 18 16 14 14 12 12 11 10 10 9 8 9 9 8 6 6 6 7 8 9 11 13 15 18 20 21 23 24 25 26 26 28
23 20 18 17 16 15 15 13 12 11 10 9 9 10 9 9 9 9 10 11 12 13 14 17 19 20 21 23 24 26 28 28 29
27 25 23 21 20 18 17 16 14 13 12 11 11 10 10 10 11 11 12 12 13 14 16 19 20 22 23 25 26 26 28 30 32
28 27 25 22 21 20 18 18 16 14 13 13 12 11 11 11 11 12 13 13 14 16 18 20 22 23 24 26 26 27 28 29 31
29 26 25 24 23 22 20 19 18 16 15 14 13 13 11 11 12 14 14 15 17 19 21 22 23 24 24 24 25 27 28 30 28
31 29 27 27 26 24 22 21 20 18 17 15 14 14 12 13 14 15 16 17 18 20 21 23 24 24 23 23 24 28 30 31 29
33 31 30 28 27 25 24 22 21 19 18 17 16 15 14 15 17 16 18 19 20 21 22 24 24 23 24 26 30 30 30 30 27
36 34 31 30 28 26 25 24 22 21 21 20 17 16 17 18 18 19 20 20 21 22 22 22 23 24 26 30 33 33 31 27 26
39 35 32 31 29 28 26 24 23 23 23 22 20 18 18 20 20 20 21 22 21 22 22 22 24 25 27 31 32 28 25 23 22
41 37 33 31 30 29 27 26 25 26 25 24 22 20 21 20 20 21 23 22 21 22 24 23 25 26 28 26 26 27 28 25 26
43 38 33 31 31 30 29 28 28 28 27 25 23 21 23 21 22 21 21 21 21 24 25 25 24 22 20 22 25 26 29 29 32
42 38 34 33 32 31 31 30 30 30 28 25 22 23 24 23 21 20 21 22 22 23 23 19 14 13 15 18 21 24 28 29 32
42 37 35 36 35 34 34 32 31 30 29 25 25 24 24 22 22 22 24 24 25 17 10 10 13 16 18 20 23 25 28 30 34
43 39 40 39 37 36 34 33 32 32 29 27 25 24 24 23 21 23 27 26 21 14 13 12 14 17 20 21 24 27 30 31 33
46 44 44 41 39 38 37 34 34 31 31 29 24 24 23 22 24 28 26 15 10 9 10 10 13 16 17 18 20 24 28 31 35
49 48 45 42 42 42 38 36 35 35 34 29 25 25 22 26 32 25 14 12 11 10 10 11 8 9 12 14 17 20 20 26 31
51 48 47 45 43 42 39 38 40 38 35 32 28 28 31 31 31 27 17 15 13 13 11 9 7 11 14 15 17 21 27 27 28